KC5DAQ-22 Weather Reports


time (UTC)temp
F
wind
direction
speed
knots
gust
knots
rain 1hr
in
rain 24hr
in
rain mn
in
humidity
%
barometer
mb
20260507015453 76 3 4.3 10.4 0.00 0.00 0.00 89 1008.5
20260507015353 76 244 4.3 10.4 0.00 0.00 0.00 89 1008.5
20260507015252 76 4 3.5 10.4 0.00 0.00 0.00 89 1008.5
20260507015154 76 10 3.5 10.4 0.00 0.00 0.00 89 1008.5
20260507015054 76 354 5.2 10.4 0.00 0.00 0.00 89 1008.4
20260507014952 76 353 4.3 10.4 0.00 0.00 0.00 89 1008.5
20260507014854 76 0 3.5 8.7 0.00 0.00 0.00 89 1008.5
20260507014753 76 340 3.5 8.7 0.00 0.00 0.00 89 1008.5
20260507014654 76 314 3.5 8.7 0.00 0.00 0.00 89 1008.4
20260507014553 76 340 3.5 9.6 0.00 0.00 0.00 89 1008.5
20260507014452 76 321 3.5 9.6 0.00 0.00 0.00 89 1008.4
20260507014353 76 316 3.5 9.6 0.00 0.00 0.00 89 1008.4
20260507014252 76 321 4.3 9.6 0.00 0.00 0.00 89 1008.4
20260507014152 76 319 4.3 9.6 0.00 0.00 0.00 89 1008.4
20260507014054 76 341 4.3 9.6 0.00 0.00 0.00 90 1008.4
20260507013953 76 310 4.3 9.6 0.00 0.00 0.00 90 1008.3
20260507013852 76 330 4.3 9.6 0.00 0.00 0.00 89 1008.4
20260507013754 76 338 5.2 9.6 0.00 0.00 0.00 89 1008.3
20260507013654 76 350 6.1 9.6 0.00 0.00 0.00 90 1008.3
20260507013552 76 350 5.2 7.8 0.00 0.00 0.00 90 1008.3
20260507013453 76 344 4.3 7.8 0.00 0.00 0.00 90 1008.3
20260507013353 76 323 4.3 7.8 0.00 0.00 0.00 90 1008.3
20260507013252 76 338 3.5 7.8 0.00 0.00 0.00 89 1008.3
20260507013151 76 329 4.3 7.8 0.00 0.00 0.00 89 1008.3
20260507013052 76 314 5.2 7.8 0.00 0.00 0.00 89 1008.2
20260507012955 76 337 5.2 7.8 0.00 0.00 0.00 89 1008.2
20260507012852 76 327 4.3 7.8 0.00 0.00 0.00 89 1008.2
20260507012752 76 319 3.5 7.8 0.00 0.00 0.00 89 1008.2
20260507012654 76 331 3.5 7.8 0.00 0.00 0.00 89 1008.2
20260507012553 76 319 3.5 8.7 0.00 0.00 0.00 89 1008.1
20260507012452 76 331 3.5 11.3 0.00 0.00 0.00 89 1008.0
20260507012352 76 345 3.5 11.3 0.00 0.00 0.00 89 1008.0
20260507012252 76 330 3.5 11.3 0.00 0.00 0.00 89 1008.0
20260507012151 76 316 3.5 11.3 0.00 0.00 0.00 89 1007.9
20260507012051 77 350 4.3 11.3 0.00 0.00 0.00 89 1007.9
20260507011951 77 319 3.5 11.3 0.00 0.00 0.00 89 1007.8
20260507011852 77 338 3.5 11.3 0.00 0.00 0.00 88 1007.8
20260507011752 77 337 4.3 11.3 0.00 0.00 0.00 88 1007.8
20260507011652 77 336 6.1 11.3 0.00 0.00 0.00 88 1007.7
20260507011553 77 334 5.2 11.3 0.00 0.00 0.00 88 1007.7
20260507011452 78 288 4.3 11.3 0.00 0.00 0.00 88 1007.7
20260507011352 78 310 6.1 11.3 0.00 0.00 0.00 87 1007.7
20260507011252 78 313 7.0 11.3 0.00 0.00 0.00 87 1007.7
20260507011151 78 313 7.8 11.3 0.00 0.00 0.00 87 1007.7
20260507011052 79 309 7.0 11.3 0.00 0.00 0.00 86 1007.7
20260507010951 79 320 7.0 11.3 0.00 0.00 0.00 85 1007.6
20260507010852 80 282 6.1 11.3 0.00 0.00 0.00 85 1007.7
20260507010751 80 283 6.1 11.3 0.00 0.00 0.00 85 1007.6
20260507010651 81 327 6.1 11.3 0.00 0.00 0.00 85 1007.5
20260507010553 82 300 7.0 11.3 0.00 0.00 0.00 86 1007.5
20260507010452 82 312 5.2 11.3 0.00 0.00 0.00 86 1007.5
20260507010351 82 330 1.7 6.1 0.00 0.00 0.00 86 1007.4
20260507010251 82 17 0.0 2.6 0.00 0.00 0.00 86 1007.3
20260507010153 82 114 0.0 2.6 0.00 0.00 0.00 86 1007.3
20260507010054 82 114 0.9 3.5 0.00 0.00 0.00 86 1007.3
20260507005951 82 114 1.7 3.5 0.00 0.00 0.00 86 1007.3
20260507005850 82 134 0.9 3.5 0.00 0.00 0.00 86 1007.2
20260507005748 82 141 0.9 3.5 0.00 0.00 0.00 86 1007.3
20260507005645 82 142 0.0 4.3 0.00 0.00 0.00 86 1007.2
20260507005542 82 141 0.0 4.3 0.00 0.00 0.00 86 1007.2
20260507005441 82 141 0.9 5.2 0.00 0.00 0.00 86 1007.2
20260507005339 82 141 1.7 5.2 0.00 0.00 0.00 86 1007.1
20260507005238 82 89 2.6 5.2 0.00 0.00 0.00 86 1007.0
20260507005136 82 90 1.7 5.2 0.00 0.00 0.00 86 1007.0
20260507005035 82 87 0.9 5.2 0.00 0.00 0.00 86 1007.0
20260507004934 82 85 1.7 5.2 0.00 0.00 0.00 86 1006.9
20260507004831 82 148 1.7 5.2 0.00 0.00 0.00 86 1006.9
20260507004730 82 140 2.6 5.2 0.00 0.00 0.00 86 1006.9
20260507004631 82 110 3.5 5.2 0.00 0.00 0.00 86 1007.0
20260507004533 82 109 4.3 5.2 0.00 0.00 0.00 86 1006.9
20260507004431 82 109 3.5 4.3 0.00 0.00 0.00 86 1006.9
20260507004331 82 123 1.7 4.3 0.00 0.00 0.00 86 1006.9
20260507004230 82 114 1.7 4.3 0.00 0.00 0.00 86 1006.9
20260507004132 82 106 1.7 4.3 0.00 0.00 0.00 86 1006.9
20260507004032 83 135 1.7 4.3 0.00 0.00 0.00 86 1006.9
20260507003931 83 117 1.7 4.3 0.00 0.00 0.00 86 1006.9
20260507003833 83 154 2.6 4.3 0.00 0.00 0.00 86 1006.8
20260507003732 83 124 2.6 4.3 0.00 0.00 0.00 86 1006.8
20260507003631 83 120 1.7 4.3 0.00 0.00 0.00 86 1006.8
20260507003530 83 151 0.9 4.3 0.00 0.00 0.00 86 1006.8
20260507003431 83 97 1.7 4.3 0.00 0.00 0.00 86 1006.8
20260507003331 83 104 1.7 4.3 0.00 0.00 0.00 86 1006.8
20260507003231 83 102 1.7 4.3 0.00 0.00 0.00 86 1006.8
20260507003133 83 100 2.6 4.3 0.00 0.00 0.00 86 1006.8
20260507003032 83 78 2.6 4.3 0.00 0.00 0.00 86 1006.7
20260507002929 83 76 0.9 4.3 0.00 0.00 0.00 86 1006.7
20260507002828 83 68 0.0 4.3 0.00 0.00 0.00 86 1006.7
20260507002723 82 59 0.0 4.3 0.00 0.00 0.00 86 1006.7
20260507002621 82 30 0.9 4.3 0.00 0.00 0.00 86 1006.8
20260507002520 82 30 2.6 4.3 0.00 0.00 0.00 86 1006.7
20260507002416 82 48 2.6 4.3 0.00 0.00 0.00 86 1006.7
20260507002315 82 48 1.7 4.3 0.00 0.00 0.00 86 1006.7
20260507002215 82 31 0.0 0.0 0.00 0.00 0.00 86 1006.7
20260507002112 82 76 0.0 0.9 0.00 0.00 0.00 86 1006.7
20260507002011 82 76 0.0 0.9 0.00 0.00 0.00 86 1006.7
20260507001909 82 76 0.0 1.7 0.00 0.00 0.00 86 1006.8
20260507001807 82 76 0.0 1.7 0.00 0.00 0.00 86 1006.7
20260507001706 82 86 0.0 3.5 0.00 0.00 0.00 86 1006.7
20260507001604 82 86 0.0 4.3 0.00 0.00 0.00 86 1006.7
20260507001505 82 86 0.0 4.3 0.00 0.00 0.00 86 1006.7
20260507001404 83 86 0.0 4.3 0.00 0.00 0.00 86 1006.7
20260507001302 83 86 0.0 4.3 0.00 0.00 0.00 86 1006.6
20260507001203 83 86 0.0 4.3 0.00 0.00 0.00 85 1006.6
20260507001102 83 83 0.9 4.3 0.00 0.00 0.00 85 1006.6
20260507001002 83 79 0.9 4.3 0.00 0.00 0.00 85 1006.6
20260507000902 83 79 1.7 4.3 0.00 0.00 0.00 85 1006.6
20260507000804 83 80 2.6 4.3 0.00 0.00 0.00 85 1006.7
20260507000703 83 76 2.6 4.3 0.00 0.00 0.00 85 1006.7
20260507000602 83 94 1.7 4.3 0.00 0.00 0.00 84 1006.6
20260507000503 83 44 1.7 4.3 0.00 0.00 0.00 84 1006.5
20260507000402 84 25 2.6 4.3 0.00 0.00 0.00 83 1006.4
20260507000306 84 31 1.7 4.3 0.00 0.00 0.00 83 1006.4
20260507000204 84 0 1.7 4.3 0.00 0.00 0.00 83 1006.5
20260507000002 84 0 2.6 4.3 0.00 0.00 0.00 82 1006.6
20260506235903 85 8 2.6 7.8 0.00 0.00 0.00 82 1006.6
20260506235804 85 4 1.7 7.8 0.00 0.00 0.00 81 1006.6
20260506235703 85 327 0.9 7.8 0.00 0.00 0.00 81 1006.6
20260506235603 85 279 0.9 7.8 0.00 0.00 0.00 81 1006.6
20260506235502 85 279 0.9 7.8 0.00 0.00 0.00 81 1006.6
20260506235402 85 92 0.0 7.8 0.00 0.00 0.00 81 1006.5
20260506235306 85 83 0.9 7.8 0.00 0.00 0.00 81 1006.4
20260506235201 85 83 1.7 8.7 0.00 0.00 0.00 80 1006.4
20260506235103 85 178 3.5 8.7 0.00 0.00 0.00 80 1006.4
20260506235003 85 189 4.3 8.7 0.00 0.00 0.00 81 1006.5
20260506234904 85 190 3.5 8.7 0.00 0.00 0.00 80 1006.4
20260506234803 85 166 3.5 8.7 0.00 0.00 0.00 80 1006.5
20260506234703 85 228 2.6 8.7 0.00 0.00 0.00 81 1006.5
20260506234602 85 185 3.5 8.7 0.00 0.00 0.00 80 1006.5
20260506234502 85 197 4.3 8.7 0.00 0.00 0.00 80 1006.5
20260506234403 85 200 5.2 8.7 0.00 0.00 0.00 80 1006.4
20260506234301 85 142 3.5 8.7 0.00 0.00 0.00 80 1006.4
20260506234201 85 164 2.6 8.7 0.00 0.00 0.00 80 1006.4
20260506234103 85 200 3.5 8.7 0.00 0.00 0.00 80 1006.3
20260506234003 85 157 4.3 8.7 0.00 0.00 0.00 80 1006.4
20260506233902 85 227 3.5 8.7 0.00 0.00 0.00 80 1006.4
20260506233802 85 161 4.3 8.7 0.00 0.00 0.00 80 1006.4
20260506233703 85 172 4.3 8.7 0.00 0.00 0.00 80 1006.5
20260506233602 85 188 3.5 7.8 0.00 0.00 0.00 80 1006.4
20260506233502 85 206 3.5 7.8 0.00 0.00 0.00 80 1006.4
20260506233403 85 196 3.5 7.8 0.00 0.00 0.00 80 1006.5
20260506233302 85 200 3.5 8.7 0.00 0.00 0.00 80 1006.4
20260506233201 85 69 3.5 8.7 0.00 0.00 0.00 80 1006.4
20260506233104 85 197 4.3 9.6 0.00 0.00 0.00 80 1006.4
20260506233004 85 188 3.5 9.6 0.00 0.00 0.00 80 1006.3
20260506232902 85 154 2.6 9.6 0.00 0.00 0.00 80 1006.3
20260506232802 85 159 2.6 9.6 0.00 0.00 0.00 80 1006.2
20260506232704 85 135 3.5 9.6 0.00 0.00 0.00 80 1006.2
20260506232603 85 173 3.5 9.6 0.00 0.00 0.00 80 1006.2
20260506232503 85 155 4.3 9.6 0.00 0.00 0.00 80 1006.2
20260506232403 85 161 4.3 9.6 0.00 0.00 0.00 80 1006.2
20260506232306 85 176 5.2 9.6 0.00 0.00 0.00 79 1006.2
20260506232203 85 128 6.1 9.6 0.00 0.00 0.00 79 1006.2
20260506232102 86 203 5.2 9.6 0.00 0.00 0.00 79 1006.2
20260506232004 86 188 5.2 9.6 0.00 0.00 0.00 79 1006.2
20260506231902 86 166 5.2 8.7 0.00 0.00 0.00 79 1006.3
20260506231803 86 189 3.5 8.7 0.00 0.00 0.00 79 1006.2
20260506231704 86 197 3.5 8.7 0.00 0.00 0.00 79 1006.2
20260506231602 86 144 4.3 8.7 0.00 0.00 0.00 79 1006.3
20260506231504 86 168 4.3 8.7 0.00 0.00 0.00 79 1006.1
20260506231402 86 210 3.5 6.1 0.00 0.00 0.00 79 1006.2
20260506231302 86 154 3.5 6.1 0.00 0.00 0.00 78 1006.2
20260506231202 86 193 2.6 6.1 0.00 0.00 0.00 78 1006.2
20260506231102 86 140 1.7 6.1 0.00 0.00 0.00 78 1006.2
20260506231004 86 173 3.5 6.1 0.00 0.00 0.00 78 1006.2
20260506230903 86 130 4.3 6.1 0.00 0.00 0.00 78 1006.1
20260506230804 86 188 2.6 6.1 0.00 0.00 0.00 78 1006.1
20260506230702 87 192 1.7 5.2 0.00 0.00 0.00 78 1006.1
20260506230602 87 173 1.7 7.8 0.00 0.00 0.00 78 1006.1
20260506230502 87 107 2.6 7.8 0.00 0.00 0.00 78 1006.1
20260506230403 87 188 2.6 8.7 0.00 0.00 0.00 77 1006.1
20260506230302 87 182 3.5 8.7 0.00 0.00 0.00 77 1006.1
20260506230202 87 202 2.6 8.7 0.00 0.00 0.00 77 1006.1
20260506230103 87 214 2.6 8.7 0.00 0.00 0.00 77 1006.2
20260506230003 87 110 3.5 8.7 0.00 0.00 0.00 77 1006.2
20260506225902 87 188 3.5 8.7 0.00 0.00 0.00 77 1006.2
20260506225801 87 199 4.3 8.7 0.00 0.00 0.00 76 1006.2
20260506225702 87 200 4.3 8.7 0.00 0.00 0.00 77 1006.1
20260506225603 87 99 4.3 8.7 0.00 0.00 0.00 76 1006.2
20260506225502 87 175 3.5 8.7 0.00 0.00 0.00 77 1006.1
20260506225402 87 193 3.5 8.7 0.00 0.00 0.00 77 1006.1
20260506225305 87 130 3.5 8.7 0.00 0.00 0.00 77 1006.1
20260506225202 87 106 2.6 8.7 0.00 0.00 0.00 77 1006.1
20260506225102 87 111 2.6 8.7 0.00 0.00 0.00 77 1006.2
20260506225004 87 145 3.5 8.7 0.00 0.00 0.00 77 1006.2
20260506224902 87 165 3.5 9.6 0.00 0.00 0.00 77 1006.2
20260506224802 87 128 3.5 9.6 0.00 0.00 0.00 78 1006.2
20260506224703 87 185 4.3 9.6 0.00 0.00 0.00 77 1006.2
20260506224604 86 169 5.2 9.6 0.00 0.00 0.00 77 1006.1
20260506224503 87 185 5.2 9.6 0.00 0.00 0.00 77 1006.2
20260506224402 87 210 5.2 9.6 0.00 0.00 0.00 77 1006.1
20260506224302 87 210 5.2 9.6 0.00 0.00 0.00 77 1006.2
20260506224202 87 212 5.2 9.6 0.00 0.00 0.00 77 1006.1
20260506224102 87 192 5.2 9.6 0.00 0.00 0.00 76 1006.1
20260506224003 87 230 5.2 9.6 0.00 0.00 0.00 76 1006.1
20260506223904 87 183 5.2 9.6 0.00 0.00 0.00 76 1006.2
20260506223802 87 193 4.3 9.6 0.00 0.00 0.00 77 1006.1
20260506223703 87 203 5.2 9.6 0.00 0.00 0.00 77 1006.1
20260506223604 87 172 5.2 9.6 0.00 0.00 0.00 78 1006.1
20260506223503 87 188 4.3 11.3 0.00 0.00 0.00 78 1006.1
20260506223402 86 189 3.5 11.3 0.00 0.00 0.00 78 1006.2
20260506223302 86 100 4.3 11.3 0.00 0.00 0.00 78 1006.1
20260506223202 86 219 4.3 11.3 0.00 0.00 0.00 79 1006.2
20260506223102 86 171 2.6 11.3 0.00 0.00 0.00 79 1006.1
20260506223002 86 134 3.5 11.3 0.00 0.00 0.00 79 1006.1
20260506222905 86 179 4.3 11.3 0.00 0.00 0.00 79 1006.1
20260506222802 86 131 3.5 11.3 0.00 0.00 0.00 79 1006.2
20260506222703 86 188 4.3 11.3 0.00 0.00 0.00 79 1006.1
20260506222602 86 124 5.2 11.3 0.00 0.00 0.00 79 1006.1
20260506222503 86 166 4.3 8.7 0.00 0.00 0.00 79 1006.1
20260506222402 86 250 3.5 8.7 0.00 0.00 0.00 79 1006.1
20260506222301 86 182 2.6 8.7 0.00 0.00 0.00 79 1006.0
20260506222202 86 134 2.6 8.7 0.00 0.00 0.00 79 1006.0
20260506222102 86 195 3.5 8.7 0.00 0.00 0.00 79 1006.0
20260506222003 86 128 4.3 8.7 0.00 0.00 0.00 79 1006.1
20260506221903 86 164 4.3 8.7 0.00 0.00 0.00 79 1006.0
20260506221802 86 130 3.5 8.7 0.00 0.00 0.00 79 1006.1
20260506221703 86 83 3.5 9.6 0.00 0.00 0.00 79 1006.0
20260506221602 86 80 4.3 9.6 0.00 0.00 0.00 78 1006.0
20260506221505 86 162 4.3 9.6 0.00 0.00 0.00 78 1006.1
20260506221401 86 162 3.5 9.6 0.00 0.00 0.00 79 1006.0
20260506221302 86 162 3.5 9.6 0.00 0.00 0.00 79 1006.0
20260506221203 86 125 2.6 9.6 0.00 0.00 0.00 79 1006.0
20260506221103 86 159 3.5 9.6 0.00 0.00 0.00 79 1006.0
20260506221004 86 175 5.2 9.6 0.00 0.00 0.00 79 1005.9
20260506220904 86 165 5.2 9.6 0.00 0.00 0.00 78 1005.9
20260506220802 86 144 4.3 9.6 0.00 0.00 0.00 78 1006.0
20260506220702 86 116 2.6 7.8 0.00 0.00 0.00 78 1005.9
20260506220602 86 125 3.5 9.6 0.00 0.00 0.00 78 1006.0
20260506220503 86 173 5.2 9.6 0.00 0.00 0.00 78 1006.0
20260506220402 87 172 4.3 9.6 0.00 0.00 0.00 78 1006.0
20260506220303 87 157 3.5 9.6 0.00 0.00 0.00 78 1006.0
20260506220204 87 149 4.3 9.6 0.00 0.00 0.00 78 1006.0
20260506220002 87 118 5.2 9.6 0.00 0.00 0.00 77 1006.0
20260506215902 87 118 4.3 9.6 0.00 0.00 0.00 77 1005.9
20260506215803 87 199 4.3 9.6 0.00 0.00 0.00 77 1006.0
20260506215702 87 140 3.5 9.6 0.00 0.00 0.00 76 1006.0
20260506215602 87 189 2.6 11.3 0.00 0.00 0.00 76 1005.9
20260506215504 87 166 4.3 11.3 0.00 0.00 0.00 76 1005.9
20260506215402 87 189 4.3 11.3 0.00 0.00 0.00 76 1006.0
20260506215301 87 189 3.5 11.3 0.00 0.00 0.00 76 1006.0
20260506215201 87 179 3.5 11.3 0.00 0.00 0.00 76 1005.9
20260506215103 87 154 3.5 11.3 0.00 0.00 0.00 76 1005.9
20260506215002 87 240 3.5 11.3 0.00 0.00 0.00 76 1006.0
20260506214902 87 189 3.5 11.3 0.00 0.00 0.00 76 1006.0
20260506214804 87 195 5.2 11.3 0.00 0.00 0.00 76 1005.9
20260506214702 87 203 7.8 11.3 0.00 0.00 0.00 76 1005.9
20260506214603 87 195 6.1 10.4 0.00 0.00 0.00 76 1006.0
20260506214503 87 212 5.2 8.7 0.00 0.00 0.00 76 1006.0
20260506214404 87 197 5.2 8.7 0.00 0.00 0.00 76 1006.0
20260506214301 87 213 6.1 8.7 0.00 0.00 0.00 76 1006.0
20260506214202 87 227 4.3 8.7 0.00 0.00 0.00 76 1006.0
20260506214103 87 199 3.5 8.7 0.00 0.00 0.00 77 1006.0
20260506214002 87 227 4.3 8.7 0.00 0.00 0.00 77 1006.0
20260506213902 87 241 5.2 8.7 0.00 0.00 0.00 76 1006.0
20260506213803 87 250 5.2 8.7 0.00 0.00 0.00 76 1006.0
20260506213702 87 240 5.2 8.7 0.00 0.00 0.00 76 1006.0
20260506213602 87 195 4.3 8.7 0.00 0.00 0.00 77 1006.0
20260506213502 87 175 5.2 8.7 0.00 0.00 0.00 77 1005.9
20260506213402 87 176 4.3 8.7 0.00 0.00 0.00 77 1005.9
20260506213302 87 241 3.5 10.4 0.00 0.00 0.00 77 1005.9
20260506213202 87 192 3.5 10.4 0.00 0.00 0.00 77 1005.9
20260506213103 87 169 3.5 10.4 0.00 0.00 0.00 77 1005.9
20260506213004 87 131 2.6 10.4 0.00 0.00 0.00 77 1006.0
20260506212901 87 80 3.5 10.4 0.00 0.00 0.00 77 1006.0
20260506212803 87 186 5.2 10.4 0.00 0.00 0.00 77 1006.0
20260506212704 87 193 5.2 10.4 0.00 0.00 0.00 76 1006.0
20260506212601 87 224 5.2 10.4 0.00 0.00 0.00 76 1006.1
20260506212502 87 217 5.2 10.4 0.00 0.00 0.00 75 1006.2
20260506212403 87 182 5.2 10.4 0.00 0.00 0.00 76 1006.1
20260506212305 88 173 4.3 10.4 0.00 0.00 0.00 76 1006.2
20260506212202 88 173 3.5 6.1 0.00 0.00 0.00 76 1006.2
20260506212103 88 175 3.5 6.1 0.00 0.00 0.00 77 1006.3
20260506212003 88 186 4.3 8.7 0.00 0.00 0.00 77 1006.2
20260506211901 88 173 3.5 8.7 0.00 0.00 0.00 77 1006.2
20260506211802 87 159 3.5 9.6 0.00 0.00 0.00 78 1006.1
20260506211703 87 135 3.5 9.6 0.00 0.00 0.00 78 1006.2
20260506211602 87 149 3.5 10.4 0.00 0.00 0.00 78 1006.1
20260506211502 87 207 2.6 10.4 0.00 0.00 0.00 78 1006.1
20260506211403 87 51 3.5 10.4 0.00 0.00 0.00 78 1006.2
20260506211302 87 120 3.5 10.4 0.00 0.00 0.00 78 1006.2
20260506211202 87 133 3.5 10.4 0.00 0.00 0.00 77 1006.2
20260506211102 87 138 5.2 10.4 0.00 0.00 0.00 77 1006.2
20260506211004 87 148 5.2 10.4 0.00 0.00 0.00 77 1006.3
20260506210902 87 128 5.2 10.4 0.00 0.00 0.00 76 1006.2
20260506210802 87 85 5.2 10.4 0.00 0.00 0.00 76 1006.2
20260506210703 88 182 5.2 10.4 0.00 0.00 0.00 76 1006.3
20260506210603 88 157 4.3 10.4 0.00 0.00 0.00 76 1006.3
20260506210503 88 227 4.3 10.4 0.00 0.00 0.00 76 1006.2
20260506210403 88 197 3.5 10.4 0.00 0.00 0.00 76 1006.3
20260506210304 88 233 4.3 10.4 0.00 0.00 0.00 76 1006.2
20260506210202 88 233 3.5 10.4 0.00 0.00 0.00 76 1006.2
20260506210004 87 85 4.3 10.4 0.00 0.00 0.00 76 1006.3
20260506205902 87 135 4.3 10.4 0.00 0.00 0.00 76 1006.3
20260506205802 87 254 4.3 9.6 0.00 0.00 0.00 76 1006.3
20260506205703 87 188 5.2 9.6 0.00 0.00 0.00 76 1006.3
20260506205602 88 149 4.3 8.7 0.00 0.00 0.00 76 1006.4
20260506205502 87 202 4.3 8.7 0.00 0.00 0.00 76 1006.3
20260506205401 87 118 5.2 8.7 0.00 0.00 0.00 76 1006.3
20260506205306 88 116 5.2 7.8 0.00 0.00 0.00 76 1006.3
20260506205202 88 130 4.3 7.8 0.00 0.00 0.00 76 1006.3
20260506205102 88 131 3.5 7.8 0.00 0.00 0.00 76 1006.3
20260506205004 88 92 4.3 7.8 0.00 0.00 0.00 76 1006.3
20260506204903 88 176 4.3 7.8 0.00 0.00 0.00 76 1006.4
20260506204801 87 185 3.5 7.8 0.00 0.00 0.00 77 1006.4
20260506204703 87 176 3.5 7.8 0.00 0.00 0.00 77 1006.4
20260506204603 87 189 4.3 7.8 0.00 0.00 0.00 77 1006.4
20260506204503 87 238 4.3 7.8 0.00 0.00 0.00 78 1006.4
20260506204403 87 173 3.5 7.8 0.00 0.00 0.00 79 1006.4
20260506204303 87 125 3.5 7.8 0.00 0.00 0.00 79 1006.4
20260506204202 86 144 3.5 7.8 0.00 0.00 0.00 79 1006.5
20260506204102 86 161 3.5 7.8 0.00 0.00 0.00 79 1006.5
20260506204003 86 121 3.5 9.6 0.00 0.00 0.00 80 1006.6
20260506203903 85 255 3.5 9.6 0.00 0.00 0.00 80 1006.5
20260506203803 85 145 3.5 9.6 0.00 0.00 0.00 80 1006.5
20260506203702 85 127 4.3 9.6 0.00 0.00 0.00 80 1006.6
20260506203603 85 142 4.3 9.6 0.00 0.00 0.00 80 1006.5
20260506203502 85 135 3.5 9.6 0.00 0.00 0.00 81 1006.6
20260506203402 85 200 3.5 9.6 0.00 0.00 0.00 81 1006.5
20260506203303 85 141 3.5 9.6 0.00 0.00 0.00 81 1006.6
20260506203203 85 199 4.3 9.6 0.00 0.00 0.00 81 1006.6
20260506203102 85 175 3.5 9.6 0.00 0.00 0.00 81 1006.6
20260506203002 85 195 2.6 9.6 0.00 0.00 0.00 81 1006.6
20260506202903 85 164 2.6 10.4 0.00 0.00 0.00 81 1006.6
20260506202803 84 171 2.6 10.4 0.00 0.00 0.00 81 1006.7
20260506202702 84 179 2.6 10.4 0.00 0.00 0.00 81 1006.7
20260506202603 84 248 1.7 10.4 0.00 0.00 0.00 81 1006.7
20260506202502 84 169 3.5 10.4 0.00 0.00 0.00 81 1006.7
20260506202402 84 154 4.3 10.4 0.00 0.00 0.00 81 1006.7
20260506202306 84 147 3.5 10.4 0.00 0.00 0.00 81 1006.7
20260506202202 84 102 3.5 10.4 0.00 0.00 0.00 80 1006.6
20260506202103 84 271 5.2 10.4 0.00 0.00 0.00 80 1006.7
20260506202002 85 151 6.1 10.4 0.00 0.00 0.00 80 1006.7
20260506201902 85 168 5.2 10.4 0.00 0.00 0.00 80 1006.6
20260506201801 85 186 3.5 9.6 0.00 0.00 0.00 79 1006.7
20260506201702 85 131 5.2 9.6 0.00 0.00 0.00 79 1006.7
20260506201604 85 171 5.2 9.6 0.00 0.00 0.00 79 1006.7
20260506201503 85 135 5.2 9.6 0.00 0.00 0.00 79 1006.8
20260506201403 85 158 4.3 9.6 0.00 0.00 0.00 79 1006.7
20260506201302 85 78 3.5 9.6 0.00 0.00 0.00 81 1006.7
20260506201203 85 61 3.5 9.6 0.00 0.00 0.00 81 1006.7
20260506201102 85 89 3.5 9.6 0.00 0.00 0.00 81 1006.7
20260506201001 85 152 3.5 9.6 0.00 0.00 0.00 80 1006.7
20260506200902 86 116 4.3 9.6 0.00 0.00 0.00 79 1006.7
20260506200802 86 107 6.1 9.6 0.00 0.00 0.00 78 1006.7
20260506200701 86 104 5.2 9.6 0.00 0.00 0.00 77 1006.7
20260506200558 86 106 3.5 9.6 0.00 0.00 0.00 76 1006.7
20260506200457 87 195 3.5 9.6 0.00 0.00 0.00 76 1006.7
20260506200355 87 121 3.5 9.6 0.00 0.00 0.00 76 1006.7
20260506200254 87 171 2.6 8.7 0.00 0.00 0.00 76 1006.7
20260506200147 87 145 2.6 8.7 0.00 0.00 0.00 76 1006.6
20260506200048 87 109 2.6 8.7 0.00 0.00 0.00 76 1006.7
20260506195946 87 166 1.7 8.7 0.00 0.00 0.00 77 1006.7
20260506195845 87 118 3.5 8.7 0.00 0.00 0.00 76 1006.7
20260506195744 87 138 3.5 8.7 0.00 0.00 0.00 76 1006.8
20260506195645 87 172 3.5 8.7 0.00 0.00 0.00 76 1006.7
20260506195544 87 157 4.3 8.7 0.00 0.00 0.00 76 1006.7
20260506195444 87 135 5.2 8.7 0.00 0.00 0.00 76 1006.8
20260506195346 87 200 4.3 8.7 0.00 0.00 0.00 76 1006.7
20260506195244 87 188 2.6 8.7 0.00 0.00 0.00 76 1006.8
20260506195144 87 192 3.5 8.7 0.00 0.00 0.00 76 1006.8
20260506195044 86 186 4.3 8.7 0.00 0.00 0.00 76 1006.8
20260506194946 86 124 4.3 8.7 0.00 0.00 0.00 76 1006.8
20260506194844 86 252 3.5 7.8 0.00 0.00 0.00 75 1006.9
20260506194744 87 193 3.5 7.8 0.00 0.00 0.00 75 1006.8
20260506194645 87 206 3.5 7.8 0.00 0.00 0.00 75 1006.9
20260506194544 87 195 4.3 7.8 0.00 0.00 0.00 75 1006.9
20260506194444 87 189 4.3 7.8 0.00 0.00 0.00 76 1006.8
20260506194344 87 151 3.5 6.1 0.00 0.00 0.00 76 1006.8
20260506194246 87 196 2.6 6.1 0.00 0.00 0.00 76 1006.9
20260506194144 87 128 1.7 6.1 0.00 0.00 0.00 76 1006.9
20260506194044 87 161 1.7 6.1 0.00 0.00 0.00 77 1006.9
20260506193946 87 186 1.7 6.1 0.00 0.00 0.00 77 1007.0
20260506193845 86 116 1.7 6.1 0.00 0.00 0.00 77 1006.9
20260506193745 86 75 1.7 6.1 0.00 0.00 0.00 77 1007.0
20260506193644 86 149 1.7 6.1 0.00 0.00 0.00 77 1006.9
20260506193546 86 141 2.6 8.7 0.00 0.00 0.00 76 1006.9
20260506193444 86 131 2.6 9.6 0.00 0.00 0.00 76 1006.9
20260506193343 86 158 3.5 9.6 0.00 0.00 0.00 76 1006.9
20260506193244 86 161 2.6 9.6 0.00 0.00 0.00 76 1007.0
20260506193143 86 161 2.6 9.6 0.00 0.00 0.00 76 1007.0
20260506193043 86 127 4.3 9.6 0.00 0.00 0.00 76 1007.0
20260506192946 86 234 4.3 9.6 0.00 0.00 0.00 77 1007.0
20260506192845 86 180 4.3 9.6 0.00 0.00 0.00 76 1007.0
20260506192744 86 221 4.3 9.6 0.00 0.00 0.00 76 1007.0
20260506192644 86 175 4.3 9.6 0.00 0.00 0.00 76 1007.0
20260506192545 86 164 2.6 9.6 0.00 0.00 0.00 77 1007.0
20260506192445 86 45 1.7 5.2 0.00 0.00 0.00 79 1007.0
20260506192344 86 202 1.7 5.2 0.00 0.00 0.00 79 1007.1
20260506192243 85 120 1.7 5.2 0.00 0.00 0.00 79 1007.1
20260506192218 85 175 1.7 5.2 0.00 0.00 0.00 79 1007.1
20260506192043 85 107 2.6 5.2 0.00 0.00 0.00 79 1007.1
20260506192014 85 107 2.6 5.2 0.00 0.00 0.00 78 1007.0
20260506191844 85 114 2.6 5.2 0.00 0.00 0.00 79 1007.1
20260506191744 85 120 3.5 5.2 0.00 0.00 0.00 79 1007.1
20260506191643 85 200 4.3 5.2 0.00 0.00 0.00 79 1007.1
20260506191544 85 188 4.3 5.2 0.00 0.00 0.00 79 1007.2
20260506191445 85 195 3.5 5.2 0.00 0.00 0.00 79 1007.2
20260506191344 85 235 1.7 5.2 0.00 0.00 0.00 79 1007.2
20260506191245 85 123 1.7 4.3 0.00 0.00 0.00 80 1007.3
20260506191144 85 158 0.9 4.3 0.00 0.00 0.00 80 1007.3
20260506191044 85 47 0.9 4.3 0.00 0.00 0.00 80 1007.3
20260506190943 85 142 2.6 4.3 0.00 0.00 0.00 81 1007.4
20260506190845 85 106 2.6 4.3 0.00 0.00 0.00 81 1007.4
20260506190743 85 89 2.6 4.3 0.00 0.00 0.00 80 1007.4
20260506190643 85 142 2.6 4.3 0.00 0.00 0.00 80 1007.4
20260506190541 85 111 1.7 4.3 0.00 0.00 0.00 80 1007.3
20260506190441 85 87 1.7 4.3 0.00 0.00 0.00 80 1007.3
20260506190339 85 111 1.7 4.3 0.00 0.00 0.00 80 1007.3
20260506190237 85 140 2.6 4.3 0.00 0.00 0.00 79 1007.3
20260506190138 85 147 2.6 4.3 0.00 0.00 0.00 79 1007.4
20260506190036 85 121 2.6 4.3 0.00 0.00 0.00 79 1007.4
20260506185933 86 154 2.6 5.2 0.00 0.00 0.00 78 1007.4
20260506185831 86 306 1.7 5.2 0.00 0.00 0.00 77 1007.4
20260506185731 86 245 1.7 5.2 0.00 0.00 0.00 77 1007.4
20260506185633 86 209 0.9 5.2 0.00 0.00 0.00 77 1007.4
20260506185531 87 173 0.9 5.2 0.00 0.00 0.00 77 1007.5
20260506185432 87 127 0.9 5.2 0.00 0.00 0.00 77 1007.5
20260506185332 87 110 0.9 5.2 0.00 0.00 0.00 77 1007.4
20260506185231 87 99 0.9 5.2 0.00 0.00 0.00 77 1007.5
20260506185131 87 99 1.7 5.2 0.00 0.00 0.00 77 1007.5
20260506185031 87 100 3.5 5.2 0.00 0.00 0.00 77 1007.5
20260506184931 87 82 2.6 5.2 0.00 0.00 0.00 77 1007.5
20260506184832 87 59 1.7 5.2 0.00 0.00 0.00 78 1007.5
20260506184731 86 255 2.6 5.2 0.00 0.00 0.00 77 1007.5
20260506184631 87 254 2.6 5.2 0.00 0.00 0.00 77 1007.5
20260506184532 87 264 0.9 5.2 0.00 0.00 0.00 78 1007.5
20260506184430 86 93 0.9 5.2 0.00 0.00 0.00 79 1007.5
20260506184331 86 93 2.6 5.2 0.00 0.00 0.00 79 1007.5
20260506184233 85 94 3.5 5.2 0.00 0.00 0.00 79 1007.5
20260506184130 85 100 3.5 5.2 0.00 0.00 0.00 79 1007.5
20260506184028 85 118 2.6 5.2 0.00 0.00 0.00 79 1007.5
20260506183927 86 133 1.7 4.3 0.00 0.00 0.00 79 1007.6
20260506183826 86 165 1.7 4.3 0.00 0.00 0.00 79 1007.6
20260506183725 86 158 2.6 4.3 0.00 0.00 0.00 79 1007.6
20260506183622 86 168 2.6 4.3 0.00 0.00 0.00 79 1007.6
20260506183516 86 92 2.6 4.3 0.00 0.00 0.00 80 1007.6
20260506183415 85 82 3.5 4.3 0.00 0.00 0.00 79 1007.6
20260506183313 86 93 3.5 4.3 0.00 0.00 0.00 79 1007.7
20260506183211 86 152 2.6 4.3 0.00 0.00 0.00 79 1007.7
20260506183111 86 202 1.7 3.5 0.00 0.00 0.00 79 1007.7
20260506183008 85 102 1.7 3.5 0.00 0.00 0.00 81 1007.8
20260506182907 85 169 1.7 3.5 0.00 0.00 0.00 80 1007.8
20260506182803 85 85 0.0 3.5 0.00 0.00 0.00 80 1007.8
20260506182703 85 168 0.9 3.5 0.00 0.00 0.00 81 1007.8
20260506182603 85 169 1.7 3.5 0.00 0.00 0.00 81 1007.8
20260506182502 85 169 1.7 4.3 0.00 0.00 0.00 81 1007.9
20260506182402 84 220 0.9 4.3 0.00 0.00 0.00 82 1007.9
20260506182306 84 217 0.9 4.3 0.00 0.00 0.00 82 1007.9
20260506182203 84 118 1.7 4.3 0.00 0.00 0.00 82 1007.9
20260506182103 84 99 1.7 4.3 0.00 0.00 0.00 82 1007.9
20260506182003 84 190 0.9 4.3 0.00 0.00 0.00 82 1008.0
20260506181903 84 118 0.9 4.3 0.00 0.00 0.00 82 1008.0
20260506181802 84 118 0.9 4.3 0.00 0.00 0.00 81 1008.0
20260506181703 84 117 1.7 4.3 0.00 0.00 0.00 82 1008.0
20260506181602 84 113 1.7 4.3 0.00 0.00 0.00 82 1008.1
20260506181502 84 130 2.6 3.5 0.00 0.00 0.00 83 1008.1
20260506181402 84 104 1.7 3.5 0.00 0.00 0.00 82 1008.1
20260506181304 84 140 0.9 3.5 0.00 0.00 0.00 83 1008.2
20260506181203 83 200 0.9 3.5 0.00 0.00 0.00 84 1008.2
20260506181100 83 149 0.9 3.5 0.00 0.00 0.00 84 1008.2
20260506181000 83 116 0.9 3.5 0.00 0.00 0.00 84 1008.2
20260506180857 83 111 1.7 3.5 0.00 0.00 0.00 85 1008.2
20260506180756 83 106 1.7 3.5 0.00 0.00 0.00 85 1008.3
20260506180654 83 66 0.9 2.6 0.00 0.00 0.00 86 1008.3
20260506180552 82 134 0.0 2.6 0.00 0.00 0.00 86 1008.3
20260506180450 82 134 0.0 2.6 0.00 0.00 0.00 86 1008.3
20260506180351 82 134 0.9 3.5 0.00 0.00 0.00 87 1008.4
20260506180248 82 135 0.9 3.5 0.00 0.00 0.00 86 1008.4
20260506180147 82 135 0.0 3.5 0.00 0.00 0.00 87 1008.5
20260506180044 82 182 0.9 3.5 0.00 0.00 0.00 87 1008.5
20260506175942 82 183 0.9 3.5 0.00 0.00 0.00 86 1008.4
20260506175843 82 168 0.9 3.5 0.00 0.00 0.00 86 1008.5
20260506175742 82 130 0.0 3.5 0.00 0.00 0.00 87 1008.5
20260506175642 82 124 0.0 3.5 0.00 0.00 0.00 87 1008.6
20260506175541 82 123 1.7 3.5 0.00 0.00 0.00 87 1008.5
20260506175441 82 127 2.6 3.5 0.00 0.00 0.00 86 1008.6
20260506175341 82 154 2.6 5.2 0.00 0.00 0.00 86 1008.6
20260506175241 82 161 1.7 5.2 0.00 0.00 0.00 87 1008.6
20260506175142 82 165 0.9 5.2 0.00 0.00 0.00 87 1008.5
20260506175041 82 113 0.9 5.2 0.00 0.00 0.00 87 1008.5
20260506174941 82 114 1.7 5.2 0.00 0.00 0.00 86 1008.5
20260506174842 82 113 2.6 5.2 0.00 0.00 0.00 86 1008.6
20260506174742 82 140 1.7 5.2 0.00 0.00 0.00 86 1008.6
20260506174643 82 148 2.6 5.2 0.00 0.00 0.00 86 1008.7
20260506174542 82 186 3.5 5.2 0.00 0.00 0.00 86 1008.6
20260506174443 82 190 3.5 5.2 0.00 0.00 0.00 86 1008.7
20260506174341 82 169 2.6 5.2 0.00 0.00 0.00 85 1008.7
20260506174241 82 137 2.6 5.2 0.00 0.00 0.00 85 1008.7
20260506174142 82 154 1.7 5.2 0.00 0.00 0.00 85 1008.7
20260506174043 82 87 1.7 5.2 0.00 0.00 0.00 85 1008.7
20260506173943 82 86 1.7 5.2 0.00 0.00 0.00 85 1008.8
20260506173841 82 164 2.6 5.2 0.00 0.00 0.00 85 1008.7
20260506173743 82 172 1.7 6.1 0.00 0.00 0.00 85 1008.7
20260506173641 82 111 1.7 6.1 0.00 0.00 0.00 85 1008.7
20260506173541 82 117 1.7 6.1 0.00 0.00 0.00 84 1008.8
20260506173442 82 104 1.7 6.1 0.00 0.00 0.00 84 1008.7
20260506173341 82 120 2.6 6.1 0.00 0.00 0.00 84 1008.8
20260506173242 83 151 3.5 6.1 0.00 0.00 0.00 84 1008.8
20260506173142 83 102 3.5 6.1 0.00 0.00 0.00 84 1008.8
20260506173043 83 165 3.5 6.1 0.00 0.00 0.00 83 1008.8
20260506172941 83 133 3.5 6.1 0.00 0.00 0.00 83 1008.9
20260506172841 83 175 2.6 6.1 0.00 0.00 0.00 83 1008.9
20260506172743 83 120 2.6 5.2 0.00 0.00 0.00 83 1008.8
20260506172641 83 171 1.7 5.2 0.00 0.00 0.00 83 1008.9
20260506172540 84 114 1.7 4.3 0.00 0.00 0.00 83 1008.8
20260506172442 84 118 1.7 4.3 0.00 0.00 0.00 83 1008.8
20260506172341 84 128 0.9 4.3 0.00 0.00 0.00 83 1008.9
20260506172241 84 175 1.7 5.2 0.00 0.00 0.00 83 1008.8
20260506172140 84 228 0.9 6.1 0.00 0.00 0.00 83 1008.8
20260506172042 84 231 0.9 6.1 0.00 0.00 0.00 84 1008.9
20260506171941 83 271 0.9 6.1 0.00 0.00 0.00 84 1008.9
20260506171841 83 116 1.7 6.1 0.00 0.00 0.00 84 1008.9
20260506171741 83 104 2.6 7.8 0.00 0.00 0.00 84 1008.9
20260506171640 83 82 1.7 7.8 0.00 0.00 0.00 84 1008.9
20260506171540 83 172 1.7 7.8 0.00 0.00 0.00 85 1008.9
20260506171440 83 161 2.6 7.8 0.00 0.00 0.00 85 1008.9
20260506171341 83 118 3.5 7.8 0.00 0.00 0.00 84 1008.9
20260506171241 83 107 3.5 7.8 0.00 0.00 0.00 84 1009.0
20260506171140 83 85 1.7 7.8 0.00 0.00 0.00 85 1008.9
20260506171040 83 110 2.6 7.8 0.00 0.00 0.00 84 1009.0
20260506170941 83 195 3.5 7.8 0.00 0.00 0.00 85 1009.0
20260506170840 83 148 2.6 7.8 0.00 0.00 0.00 84 1009.0
20260506170741 83 147 2.6 6.1 0.00 0.00 0.00 84 1009.1
20260506170641 83 204 2.6 6.1 0.00 0.00 0.00 84 1009.0
20260506170541 83 0 1.7 6.1 0.00 0.00 0.00 85 1009.0
20260506170440 83 0 1.7 7.8 0.00 0.00 0.00 85 1009.0
20260506170342 82 0 2.6 7.8 0.00 0.00 0.00 85 1008.9
20260506170240 82 65 3.5 7.8 0.00 0.00 0.00 85 1008.9
20260506170141 82 107 3.5 7.8 0.00 0.00 0.00 85 1009.0
20260506170041 82 161 3.5 7.8 0.00 0.00 0.00 86 1009.0
20260506165937 82 109 3.5 7.8 0.00 0.00 0.00 86 1008.9
20260506165837 82 103 3.5 7.8 0.00 0.00 0.00 86 1008.9
20260506165734 82 151 3.5 7.8 0.00 0.00 0.00 86 1008.9
20260506165633 81 173 4.3 7.8 0.00 0.00 0.00 86 1008.9
20260506165531 81 142 4.3 7.8 0.00 0.00 0.00 86 1008.9
20260506165431 81 203 3.5 7.8 0.00 0.00 0.00 87 1008.9
20260506165334 81 107 3.5 7.8 0.00 0.00 0.00 87 1008.9
20260506165232 81 121 3.5 7.8 0.00 0.00 0.00 87 1008.9
20260506165132 81 135 2.6 7.8 0.00 0.00 0.00 87 1009.0
20260506165033 81 169 3.5 7.8 0.00 0.00 0.00 87 1009.0
20260506164932 81 100 5.2 7.8 0.00 0.00 0.00 87 1009.0
20260506164830 81 140 4.3 8.7 0.00 0.00 0.00 87 1008.9
20260506164730 81 158 3.5 8.7 0.00 0.00 0.00 87 1008.9
20260506164630 81 152 2.6 8.7 0.00 0.00 0.00 87 1008.9
20260506164531 81 110 1.7 8.7 0.00 0.00 0.00 87 1008.9
20260506164431 81 125 2.6 8.7 0.00 0.00 0.00 87 1008.9
20260506164330 81 134 2.6 10.4 0.00 0.00 0.00 87 1009.0
20260506164212 81 124 2.6 10.4 0.00 0.00 0.00 86 1009.0
20260506164111 81 109 3.5 10.4 0.00 0.00 0.00 86 1008.9
20260506164010 81 207 3.5 10.4 0.00 0.00 0.00 86 1009.0
20260506163907 81 165 4.3 10.4 0.00 0.00 0.00 85 1009.0
20260506163806 81 192 3.5 10.4 0.00 0.00 0.00 85 1008.9
20260506163704 81 164 3.5 10.4 0.00 0.00 0.00 85 1008.9
20260506163603 81 148 3.5 10.4 0.00 0.00 0.00 85 1009.0
20260506163502 81 197 4.3 10.4 0.00 0.00 0.00 85 1008.9
20260506163403 81 176 5.2 10.4 0.00 0.00 0.00 84 1008.9
20260506163303 81 190 4.3 7.8 0.00 0.00 0.00 84 1008.9
20260506163201 81 196 3.5 6.1 0.00 0.00 0.00 85 1008.8
20260506163101 81 179 2.6 6.1 0.00 0.00 0.00 85 1008.8
20260506163004 82 197 0.9 4.3 0.00 0.00 0.00 85 1008.7
20260506162902 81 164 0.9 4.3 0.00 0.00 0.00 85 1008.8
20260506162802 81 192 1.7 4.3 0.00 0.00 0.00 85 1008.8
20260506162704 82 155 1.7 4.3 0.00 0.00 0.00 85 1008.7
20260506162601 81 168 1.7 5.2 0.00 0.00 0.00 85 1008.7
20260506162502 81 148 2.6 5.2 0.00 0.00 0.00 85 1008.8
20260506162403 81 106 2.6 6.1 0.00 0.00 0.00 85 1008.8
20260506162306 81 180 2.6 6.1 0.00 0.00 0.00 85 1008.7
20260506162203 82 135 2.6 6.1 0.00 0.00 0.00 85 1008.7
20260506162104 82 135 2.6 6.1 0.00 0.00 0.00 85 1008.7
20260506162003 82 135 2.6 6.1 0.00 0.00 0.00 85 1008.7
20260506161902 82 135 2.6 6.1 0.00 0.00 0.00 85 1008.7
20260506161803 82 135 2.6 6.1 0.00 0.00 0.00 85 1008.7
20260506161703 82 99 3.5 6.1 0.00 0.00 0.00 85 1008.7
20260506161604 82 154 3.5 6.1 0.00 0.00 0.00 85 1008.5
20260506161503 82 152 3.5 6.1 0.00 0.00 0.00 85 1008.6
20260506161403 82 157 3.5 6.1 0.00 0.00 0.00 85 1008.5
20260506161303 81 168 3.5 6.1 0.00 0.00 0.00 85 1008.5
20260506161202 81 182 3.5 5.2 0.00 0.00 0.00 85 1008.5
20260506161102 81 131 2.6 5.2 0.00 0.00 0.00 85 1008.6
20260506161004 81 162 2.6 5.2 0.00 0.00 0.00 85 1008.6
20260506160903 81 173 1.7 5.2 0.00 0.00 0.00 85 1008.6
20260506160801 81 106 2.6 5.2 0.00 0.00 0.00 85 1008.6
20260506160702 81 131 1.7 5.2 0.00 0.00 0.00 86 1008.6
20260506160603 81 123 0.9 5.2 0.00 0.00 0.00 86 1008.6
20260506160504 81 97 0.0 5.2 0.00 0.00 0.00 86 1008.7
20260506160403 81 157 1.7 5.2 0.00 0.00 0.00 86 1008.7
20260506160303 81 157 2.6 5.2 0.00 0.00 0.00 86 1008.6
20260506160202 81 151 2.6 5.2 0.00 0.00 0.00 86 1008.7
20260506160103 81 178 3.5 5.2 0.00 0.00 0.00 86 1008.7
20260506160004 81 134 3.5 5.2 0.00 0.00 0.00 86 1008.6
20260506155903 81 110 3.5 5.2 0.00 0.00 0.00 86 1008.7
20260506155802 81 155 3.5 5.2 0.00 0.00 0.00 86 1008.7
20260506155702 81 138 2.6 5.2 0.00 0.00 0.00 86 1008.7
20260506155603 81 182 2.6 5.2 0.00 0.00 0.00 86 1008.7
20260506155502 81 178 2.6 5.2 0.00 0.00 0.00 86 1008.7
20260506155403 81 135 2.6 5.2 0.00 0.00 0.00 86 1008.6
20260506155306 81 120 2.6 5.2 0.00 0.00 0.00 86 1008.6
20260506155203 81 137 2.6 5.2 0.00 0.00 0.00 86 1008.6
20260506155103 81 162 1.7 5.2 0.00 0.00 0.00 86 1008.5
20260506155003 81 224 1.7 6.1 0.00 0.00 0.00 86 1008.6
20260506154902 81 125 1.7 6.1 0.00 0.00 0.00 86 1008.5
20260506154802 81 190 3.5 6.1 0.00 0.00 0.00 86 1008.6
20260506154702 81 165 3.5 6.1 0.00 0.00 0.00 86 1008.5
20260506154603 81 172 2.6 6.1 0.00 0.00 0.00 86 1008.6
20260506154503 81 154 1.7 6.1 0.00 0.00 0.00 86 1008.6
20260506154404 81 114 2.6 6.1 0.00 0.00 0.00 86 1008.6
20260506154303 81 154 3.5 6.1 0.00 0.00 0.00 86 1008.6
20260506154202 81 169 4.3 6.1 0.00 0.00 0.00 86 1008.5
20260506154102 81 120 3.5 6.1 0.00 0.00 0.00 86 1008.5
20260506154002 81 124 3.5 6.1 0.00 0.00 0.00 86 1008.6
20260506153903 81 147 4.3 6.1 0.00 0.00 0.00 86 1008.6
20260506153802 81 164 3.5 5.2 0.00 0.00 0.00 86 1008.5
20260506153703 81 113 2.6 5.2 0.00 0.00 0.00 86 1008.5
20260506153603 81 206 3.5 7.8 0.00 0.00 0.00 86 1008.5
20260506153502 81 189 3.5 7.8 0.00 0.00 0.00 86 1008.5
20260506153402 81 157 2.6 7.8 0.00 0.00 0.00 86 1008.5
20260506153302 81 178 2.6 7.8 0.00 0.00 0.00 86 1008.5
20260506153203 81 145 2.6 7.8 0.00 0.00 0.00 86 1008.5
20260506153103 81 127 1.7 7.8 0.00 0.00 0.00 86 1008.4
20260506153003 81 147 2.6 7.8 0.00 0.00 0.00 86 1008.4
20260506152903 81 142 4.3 7.8 0.00 0.00 0.00 86 1008.4
20260506152803 81 140 4.3 7.8 0.00 0.00 0.00 86 1008.4
20260506152702 81 172 3.5 7.8 0.00 0.00 0.00 86 1008.4
20260506152602 81 178 3.5 6.1 0.00 0.00 0.00 86 1008.4
20260506152505 81 121 3.5 6.1 0.00 0.00 0.00 86 1008.3
20260506152402 81 165 3.5 6.1 0.00 0.00 0.00 86 1008.4
20260506152305 81 138 1.7 8.7 0.00 0.00 0.00 86 1008.3
20260506152203 81 169 1.7 8.7 0.00 0.00 0.00 86 1008.4
20260506152103 81 171 2.6 8.7 0.00 0.00 0.00 86 1008.3
20260506152003 81 73 2.6 8.7 0.00 0.00 0.00 86 1008.2
20260506151903 81 118 1.7 8.7 0.00 0.00 0.00 86 1008.3
20260506151802 81 178 1.7 8.7 0.00 0.00 0.00 87 1008.3
20260506151702 81 113 2.6 8.7 0.00 0.00 0.00 86 1008.2
20260506151603 81 114 3.5 8.7 0.00 0.00 0.00 86 1008.1
20260506151504 81 97 4.3 8.7 0.00 0.00 0.00 86 1008.1
20260506151403 81 137 5.2 8.7 0.00 0.00 0.00 86 1008.0
20260506151303 81 113 4.3 7.8 0.00 0.00 0.00 86 1008.1
20260506151203 81 173 3.5 7.8 0.00 0.00 0.00 86 1008.1
20260506151103 81 148 2.6 6.1 0.00 0.00 0.00 86 1008.2
20260506151002 81 175 2.6 6.1 0.00 0.00 0.00 86 1008.1
20260506150901 81 197 2.6 6.1 0.00 0.00 0.00 87 1008.1
20260506150803 81 109 3.5 6.1 0.00 0.00 0.00 86 1008.2
20260506150703 81 123 4.3 6.1 0.00 0.00 0.00 87 1008.1
20260506150604 81 131 3.5 7.8 0.00 0.00 0.00 87 1008.1
20260506150504 81 100 3.5 7.8 0.00 0.00 0.00 86 1008.1
20260506150402 81 118 3.5 7.8 0.00 0.00 0.00 87 1008.1
20260506150304 81 69 3.5 7.8 0.00 0.00 0.00 86 1008.1
20260506150203 81 117 3.5 7.8 0.00 0.00 0.00 86 1008.1
20260506150002 81 120 2.6 7.8 0.00 0.00 0.00 87 1008.1
20260506145902 81 152 2.6 7.8 0.00 0.00 0.00 87 1008.1
20260506145801 81 176 3.5 7.8 0.00 0.00 0.00 86 1008.1
20260506145701 81 162 4.3 7.8 0.00 0.00 0.00 87 1008.1
20260506145603 81 195 3.5 5.2 0.00 0.00 0.00 87 1008.0
20260506145503 81 142 2.6 5.2 0.00 0.00 0.00 87 1008.0
20260506145403 81 164 2.6 5.2 0.00 0.00 0.00 87 1008.0
20260506145305 81 171 2.6 5.2 0.00 0.00 0.00 87 1007.9
20260506145204 81 203 1.7 5.2 0.00 0.00 0.00 88 1008.0
20260506145103 80 116 2.6 5.2 0.00 0.00 0.00 87 1007.9
20260506145003 80 135 3.5 5.2 0.00 0.00 0.00 87 1007.9
20260506144902 81 107 2.6 5.2 0.00 0.00 0.00 87 1007.9
20260506144804 81 113 2.6 5.2 0.00 0.00 0.00 87 1007.8
20260506144702 81 103 1.7 7.8 0.00 0.00 0.00 87 1007.8
20260506144602 81 103 1.7 7.8 0.00 0.00 0.00 87 1007.9
20260506144503 81 127 0.9 7.8 0.00 0.00 0.00 88 1007.8
20260506144402 81 124 1.7 7.8 0.00 0.00 0.00 88 1007.7
20260506144303 81 111 1.7 7.8 0.00 0.00 0.00 88 1007.7
20260506144202 80 138 2.6 7.8 0.00 0.00 0.00 88 1007.8
20260506144103 80 127 1.7 7.8 0.00 0.00 0.00 88 1007.6
20260506144003 80 131 1.7 7.8 0.00 0.00 0.00 88 1007.6
20260506143902 80 118 3.5 7.8 0.00 0.00 0.00 88 1007.7
20260506143803 80 145 3.5 7.8 0.00 0.00 0.00 88 1007.6
20260506143702 80 147 1.7 6.1 0.00 0.00 0.00 88 1007.7
20260506143602 80 111 1.7 6.1 0.00 0.00 0.00 88 1007.7
20260506143504 80 130 2.6 6.1 0.00 0.00 0.00 88 1007.7
20260506143403 80 148 3.5 6.1 0.00 0.00 0.00 88 1007.7
20260506143302 80 107 1.7 6.1 0.00 0.00 0.00 88 1007.7
20260506143202 80 116 1.7 6.1 0.00 0.00 0.00 88 1007.7
20260506143104 80 103 3.5 7.8 0.00 0.00 0.00 88 1007.7
20260506143004 80 113 3.5 7.8 0.00 0.00 0.00 89 1007.7
20260506142903 80 141 0.9 7.8 0.00 0.00 0.00 90 1007.6
20260506142803 80 141 0.9 7.8 0.00 0.00 0.00 90 1007.7
20260506142703 80 141 0.9 7.8 0.00 0.00 0.00 90 1007.6
20260506142603 80 141 0.9 7.8 0.00 0.00 0.00 90 1007.6
20260506142503 80 141 0.9 7.8 0.00 0.00 0.00 90 1007.6
20260506142403 80 124 1.7 7.8 0.00 0.00 0.00 90 1007.6
20260506142305 79 140 3.5 7.8 0.00 0.00 0.00 90 1007.6
20260506142201 79 117 3.5 7.8 0.00 0.00 0.00 91 1007.7
20260506142103 79 86 2.6 4.3 0.00 0.00 0.00 91 1007.7
20260506142003 79 104 2.6 4.3 0.00 0.00 0.00 91 1007.8
20260506141904 79 104 2.6 4.3 0.00 0.00 0.00 91 1007.7
20260506141803 79 104 2.6 4.3 0.00 0.00 0.00 91 1007.7
20260506141638 79 118 1.7 4.3 0.00 0.00 0.00 91 1007.8
20260506141537 79 114 1.7 3.5 0.00 0.00 0.00 91 1007.7
20260506141436 79 114 1.7 3.5 0.00 0.00 0.00 91 1007.8
20260506141337 79 114 1.7 3.5 0.00 0.00 0.00 91 1007.8
20260506141237 79 90 2.6 3.5 0.00 0.00 0.00 91 1007.8
20260506141138 79 90 2.6 4.3 0.00 0.00 0.00 91 1007.8
20260506141037 79 87 2.6 4.3 0.00 0.00 0.00 91 1007.8
20260506140938 79 99 1.7 4.3 0.00 0.00 0.00 92 1007.8
20260506140837 79 162 2.6 4.3 0.00 0.00 0.00 92 1007.9
20260506140737 79 93 2.6 4.3 0.00 0.00 0.00 92 1007.8
20260506140638 78 125 1.7 4.3 0.00 0.00 0.00 92 1007.8
20260506140537 78 154 1.7 4.3 0.00 0.00 0.00 92 1007.9
20260506140436 78 134 1.7 4.3 0.00 0.00 0.00 92 1007.8
20260506140337 78 109 2.6 4.3 0.00 0.00 0.00 92 1007.9
20260506140237 78 114 2.6 4.3 0.00 0.00 0.00 92 1007.8
20260506140137 78 137 2.6 4.3 0.00 0.00 0.00 92 1007.8
20260506140038 78 104 2.6 4.3 0.00 0.00 0.00 92 1007.8
20260506135938 78 103 2.6 4.3 0.00 0.00 0.00 92 1007.8
20260506135837 78 104 2.6 4.3 0.00 0.00 0.00 92 1007.8
20260506135736 78 103 2.6 4.3 0.00 0.00 0.00 93 1007.8
20260506135636 78 83 3.5 4.3 0.00 0.00 0.00 92 1007.8
20260506135538 78 114 2.6 4.3 0.00 0.00 0.00 93 1007.8
20260506135437 78 102 2.6 4.3 0.00 0.00 0.00 93 1007.8
20260506135336 78 100 2.6 5.2 0.00 0.00 0.00 93 1007.9
20260506135238 78 100 1.7 5.2 0.00 0.00 0.00 93 1007.8
20260506135136 78 97 1.7 5.2 0.00 0.00 0.00 93 1007.8
20260506135036 78 104 2.6 5.2 0.00 0.00 0.00 93 1008.0
20260506134937 78 104 2.6 5.2 0.00 0.00 0.00 93 1008.0
20260506134836 78 109 2.6 5.2 0.00 0.00 0.00 93 1008.0
20260506134734 78 111 2.6 5.2 0.00 0.00 0.00 93 1007.9
20260506134633 78 113 2.6 5.2 0.00 0.00 0.00 93 1007.9
20260506134532 77 89 3.5 5.2 0.00 0.00 0.00 93 1007.9
20260506134431 77 110 3.5 5.2 0.00 0.00 0.00 93 1008.0
20260506134330 77 110 3.5 4.3 0.00 0.00 0.00 94 1007.9
20260506134233 77 87 3.5 4.3 0.00 0.00 0.00 94 1007.9
20260506134133 77 100 3.5 4.3 0.00 0.00 0.00 93 1007.8
20260506134030 77 125 3.5 4.3 0.00 0.00 0.00 94 1007.9
20260506133932 77 106 3.5 3.5 0.00 0.00 0.00 94 1007.9
20260506133833 77 103 1.7 3.5 0.00 0.00 0.00 94 1007.9
20260506133732 77 103 1.7 4.3 0.00 0.00 0.00 94 1007.9
20260506133632 77 103 1.7 4.3 0.00 0.00 0.00 94 1007.9
20260506133532 77 103 1.7 4.3 0.00 0.00 0.00 94 1008.0
20260506133431 77 103 1.7 4.3 0.00 0.00 0.00 94 1008.0
20260506133332 77 102 1.7 4.3 0.00 0.00 0.00 94 1008.0
20260506133232 77 103 1.7 4.3 0.00 0.00 0.00 94 1008.0
20260506133131 77 103 2.6 4.3 0.00 0.00 0.00 94 1008.0
20260506133032 77 116 2.6 4.3 0.00 0.00 0.00 94 1008.0
20260506132930 77 144 2.6 4.3 0.00 0.00 0.00 94 1008.0
20260506132833 77 137 3.5 4.3 0.00 0.00 0.00 94 1008.0
20260506132731 77 99 2.6 4.3 0.00 0.00 0.00 94 1008.1
20260506132632 77 125 2.6 4.3 0.00 0.00 0.00 94 1008.1
20260506132533 77 123 2.6 4.3 0.00 0.00 0.00 94 1008.1
20260506132434 77 96 1.7 3.5 0.00 0.00 0.00 94 1008.1
20260506132330 77 92 1.7 3.5 0.00 0.00 0.00 94 1008.2
20260506132231 77 120 0.9 3.5 0.00 0.00 0.00 94 1008.1
20260506132131 77 117 0.9 3.5 0.00 0.00 0.00 94 1008.1
20260506132031 77 117 1.7 3.5 0.00 0.00 0.00 94 1008.0
20260506131931 77 117 1.7 3.5 0.00 0.00 0.00 94 1008.1
20260506131832 77 113 1.7 3.5 0.00 0.00 0.00 94 1008.1
20260506131731 77 92 0.9 3.5 0.00 0.00 0.00 94 1008.1
20260506131632 77 92 1.7 4.3 0.00 0.00 0.00 94 1008.1
20260506131531 77 141 1.7 4.3 0.00 0.00 0.00 94 1008.1
20260506131431 77 106 1.7 4.3 0.00 0.00 0.00 94 1008.1
20260506131330 77 133 1.7 4.3 0.00 0.00 0.00 95 1008.1
20260506131231 77 103 1.7 4.3 0.00 0.00 0.00 94 1008.0
20260506131132 77 106 1.7 4.3 0.00 0.00 0.00 95 1008.1
20260506131032 77 130 1.7 4.3 0.00 0.00 0.00 95 1008.1
20260506130931 77 103 1.7 4.3 0.00 0.00 0.00 95 1008.0
20260506130831 77 99 1.7 4.3 0.00 0.00 0.00 95 1008.0
20260506130732 76 130 1.7 4.3 0.00 0.00 0.00 95 1008.1
20260506130632 76 124 1.7 3.5 0.00 0.00 0.00 95 1008.1
20260506130531 76 121 1.7 3.5 0.00 0.00 0.00 95 1008.0
20260506130431 76 137 1.7 3.5 0.00 0.00 0.00 95 1008.0
20260506130334 76 138 1.7 3.5 0.00 0.00 0.00 95 1008.1
20260506130233 76 111 1.7 3.5 0.00 0.00 0.00 95 1008.0
20260506130130 76 104 1.7 3.5 0.00 0.00 0.00 95 1008.0
20260506130028 76 128 0.9 3.5 0.00 0.00 0.00 95 1008.0
20260506125925 76 109 0.9 3.5 0.00 0.00 0.00 95 1007.9
20260506125822 76 109 1.7 3.5 0.00 0.00 0.00 95 1008.0
20260506125722 76 111 1.7 3.5 0.00 0.00 0.00 95 1008.0
20260506125620 76 113 1.7 3.5 0.00 0.00 0.00 95 1008.0
20260506125518 76 113 1.7 3.5 0.00 0.00 0.00 95 1008.0
20260506125418 76 110 1.7 3.5 0.00 0.00 0.00 95 1008.0
20260506125314 76 162 1.7 3.5 0.00 0.00 0.00 95 1008.0
20260506125213 76 134 0.9 3.5 0.00 0.00 0.00 95 1007.9
20260506125112 76 125 0.9 3.5 0.00 0.00 0.00 95 1008.0
20260506125011 76 124 0.9 3.5 0.00 0.00 0.00 95 1008.0
20260506124909 76 127 0.9 3.5 0.00 0.00 0.00 95 1008.0
20260506124805 76 125 1.7 3.5 0.00 0.00 0.00 95 1008.0
20260506124703 76 141 0.9 3.5 0.00 0.00 0.00 95 1008.0
20260506124603 76 137 0.9 3.5 0.00 0.00 0.00 95 1008.0
20260506124505 76 137 1.7 3.5 0.00 0.00 0.00 95 1008.0
20260506124402 76 118 1.7 3.5 0.00 0.00 0.00 95 1008.0
20260506124303 76 149 1.7 3.5 0.00 0.00 0.00 95 1008.0
20260506124201 76 117 1.7 3.5 0.00 0.00 0.00 95 1008.0
20260506124103 76 157 1.7 3.5 0.00 0.00 0.00 95 1008.1
20260506124002 76 147 1.7 3.5 0.00 0.00 0.00 95 1007.9
20260506123903 76 120 1.7 3.5 0.00 0.00 0.00 95 1008.0
20260506123803 76 142 0.9 3.5 0.00 0.00 0.00 95 1008.0
20260506123702 76 142 1.7 3.5 0.00 0.00 0.00 95 1007.9
20260506123601 76 144 1.7 3.5 0.00 0.00 0.00 95 1007.9
20260506123501 76 140 1.7 3.5 0.00 0.00 0.00 95 1007.9
20260506123403 76 120 1.7 3.5 0.00 0.00 0.00 95 1007.9
20260506123302 76 110 1.7 3.5 0.00 0.00 0.00 95 1008.0
20260506123202 76 109 1.7 3.5 0.00 0.00 0.00 95 1007.9
20260506123104 76 149 1.7 3.5 0.00 0.00 0.00 95 1007.9
20260506123003 76 106 1.7 3.5 0.00 0.00 0.00 95 1007.9
20260506122901 76 124 1.7 3.5 0.00 0.00 0.00 95 1007.9
20260506122802 76 130 1.7 3.5 0.00 0.00 0.00 95 1007.8
20260506122703 76 130 0.9 2.6 0.00 0.00 0.00 95 1007.8
20260506122603 76 135 0.9 2.6 0.00 0.00 0.00 95 1007.8
20260506122502 76 135 0.9 2.6 0.00 0.00 0.00 95 1007.8
20260506122403 76 134 0.0 1.7 0.00 0.00 0.00 95 1007.9
20260506122301 76 130 0.0 0.0 0.00 0.00 0.00 95 1007.9
20260506122202 76 130 0.0 0.0 0.00 0.00 0.00 95 1007.9
20260506122104 76 130 0.0 1.7 0.00 0.00 0.00 95 1007.9
20260506122004 76 130 0.0 1.7 0.00 0.00 0.00 95 1007.9
20260506121902 76 130 0.0 1.7 0.00 0.00 0.00 95 1007.9
20260506121804 76 130 0.0 1.7 0.00 0.00 0.00 95 1007.9
20260506121702 76 131 0.0 1.7 0.00 0.00 0.00 95 1007.8
20260506121603 76 131 0.0 1.7 0.00 0.00 0.00 95 1007.8
20260506121502 76 131 0.0 2.6 0.00 0.00 0.00 95 1007.8
20260506121403 76 131 0.0 2.6 0.00 0.00 0.00 95 1007.7
20260506121302 76 131 0.0 2.6 0.00 0.00 0.00 95 1007.7
20260506121202 76 131 0.9 2.6 0.00 0.00 0.00 95 1007.7
20260506121104 76 131 0.9 2.6 0.00 0.00 0.00 95 1007.7
20260506121004 76 131 0.9 2.6 0.00 0.00 0.00 95 1007.7
20260506120902 76 131 0.9 2.6 0.00 0.00 0.00 95 1007.7
20260506120802 76 133 0.0 3.5 0.00 0.00 0.00 95 1007.7
20260506120702 76 134 0.9 3.5 0.00 0.00 0.00 95 1007.7
20260506120604 76 134 1.7 3.5 0.00 0.00 0.00 95 1007.7
20260506120503 76 133 0.9 3.5 0.00 0.00 0.00 95 1007.7
20260506120404 76 134 0.9 3.5 0.00 0.00 0.00 95 1007.6
20260506120303 76 133 0.9 3.5 0.00 0.00 0.00 95 1007.6
20260506120202 76 140 0.9 3.5 0.00 0.00 0.00 95 1007.6
20260506120003 76 166 1.7 3.5 0.00 0.00 0.00 95 1007.5
20260506115903 76 172 1.7 3.5 0.00 0.00 0.00 95 1007.5
20260506115803 76 173 1.7 3.5 0.00 0.00 0.00 95 1007.5
20260506115703 76 100 1.7 3.5 0.00 0.00 0.00 95 1007.5
20260506115602 76 121 1.7 3.5 0.00 0.00 0.00 95 1007.4
20260506115504 76 173 0.9 3.5 0.00 0.00 0.00 95 1007.5
20260506115404 75 176 1.7 3.5 0.00 0.00 0.00 95 1007.5
20260506115306 75 180 0.9 3.5 0.00 0.00 0.00 95 1007.4
20260506115202 75 131 0.9 3.5 0.00 0.00 0.00 95 1007.5
20260506115104 75 131 1.7 3.5 0.00 0.00 0.00 95 1007.5
20260506115003 75 131 1.7 3.5 0.00 0.00 0.00 95 1007.4
20260506114902 75 107 0.9 3.5 0.00 0.00 0.00 95 1007.4
20260506114802 75 134 0.9 3.5 0.00 0.00 0.00 95 1007.4
20260506114704 75 131 1.7 3.5 0.00 0.00 0.00 95 1007.4
20260506114602 75 138 1.7 3.5 0.00 0.00 0.00 95 1007.3
20260506114504 75 166 1.7 3.5 0.00 0.00 0.00 95 1007.3
20260506114402 75 168 1.7 3.5 0.00 0.00 0.00 96 1007.3
20260506114302 75 125 0.9 3.5 0.00 0.00 0.00 95 1007.2
20260506114202 75 137 1.7 3.5 0.00 0.00 0.00 95 1007.3
20260506114102 75 137 1.7 3.5 0.00 0.00 0.00 95 1007.3
20260506114005 75 173 1.7 4.3 0.00 0.00 0.00 95 1007.2
20260506113902 75 168 1.7 4.3 0.00 0.00 0.00 95 1007.2
20260506113802 75 144 1.7 4.3 0.00 0.00 0.00 95 1007.2
20260506113703 75 151 1.7 4.3 0.00 0.00 0.00 95 1007.2
20260506113603 75 186 1.7 4.3 0.00 0.00 0.00 95 1007.2
20260506113502 75 152 1.7 4.3 0.00 0.00 0.00 95 1007.2
20260506113402 75 182 1.7 4.3 0.00 0.00 0.00 95 1007.2
20260506113303 75 173 1.7 4.3 0.00 0.00 0.00 95 1007.1
20260506113202 75 151 2.6 4.3 0.00 0.00 0.00 96 1007.1
20260506113103 75 172 1.7 4.3 0.00 0.00 0.00 95 1007.1
20260506113004 75 149 0.9 3.5 0.00 0.00 0.00 95 1007.0
20260506112902 75 148 0.9 3.5 0.00 0.00 0.00 95 1007.1
20260506112802 75 149 1.7 3.5 0.00 0.00 0.00 95 1007.1
20260506112702 75 152 1.7 3.5 0.00 0.00 0.00 95 1007.1
20260506112604 75 148 1.7 3.5 0.00 0.00 0.00 95 1007.0
20260506112502 75 148 0.9 3.5 0.00 0.00 0.00 95 1007.0
20260506112402 75 147 0.9 3.5 0.00 0.00 0.00 95 1007.0
20260506112306 75 147 0.0 3.5 0.00 0.00 0.00 95 1007.0
20260506112203 75 161 0.9 3.5 0.00 0.00 0.00 95 1006.9
20260506112103 75 172 1.7 3.5 0.00 0.00 0.00 95 1006.9
20260506112003 75 135 1.7 2.6 0.00 0.00 0.00 95 1006.9
20260506111903 75 135 1.7 2.6 0.00 0.00 0.00 95 1006.7
20260506111802 75 102 0.9 2.6 0.00 0.00 0.00 95 1006.7
20260506111702 75 100 0.9 2.6 0.00 0.00 0.00 95 1006.8
20260506111603 75 144 0.9 2.6 0.00 0.00 0.00 95 1006.8
20260506111503 75 142 0.9 2.6 0.00 0.00 0.00 95 1006.7
20260506111404 75 142 0.9 2.6 0.00 0.00 0.00 95 1006.8
20260506111303 75 142 0.0 2.6 0.00 0.00 0.00 95 1006.8
20260506111202 75 144 0.9 2.6 0.00 0.00 0.00 95 1006.8
20260506111102 75 155 0.9 2.6 0.00 0.00 0.00 95 1006.8
20260506111003 75 148 0.9 2.6 0.00 0.00 0.00 95 1006.8
20260506110904 75 127 0.0 2.6 0.00 0.00 0.00 95 1006.8
20260506110803 75 127 0.0 2.6 0.00 0.00 0.00 95 1006.7
20260506110702 75 140 0.0 2.6 0.00 0.00 0.00 95 1006.8
20260506110603 75 140 0.0 2.6 0.00 0.00 0.00 95 1006.8
20260506110504 75 131 0.9 2.6 0.00 0.00 0.00 95 1006.7
20260506110402 75 131 0.9 2.6 0.00 0.00 0.00 95 1006.7
20260506110302 75 130 0.9 2.6 0.00 0.00 0.00 95 1006.7
20260506110203 75 144 0.9 3.5 0.00 0.00 0.00 95 1006.7
20260506110002 75 135 1.7 3.5 0.00 0.00 0.00 95 1006.7
20260506105903 75 144 1.7 3.5 0.00 0.00 0.00 95 1006.6
20260506105802 75 147 0.9 3.5 0.00 0.00 0.00 95 1006.7
20260506105703 75 145 0.9 3.5 0.00 0.00 0.00 95 1006.6
20260506105603 75 145 0.9 3.5 0.00 0.00 0.00 95 1006.6
20260506105504 75 147 0.9 3.5 0.00 0.00 0.00 94 1006.6
20260506105402 75 144 1.7 3.5 0.00 0.00 0.00 95 1006.7
20260506105304 75 145 1.7 3.5 0.00 0.00 0.00 94 1006.7
20260506105203 75 145 1.7 3.5 0.00 0.00 0.00 95 1006.7
20260506105102 75 147 1.7 3.5 0.00 0.00 0.00 95 1006.7
20260506105003 75 162 0.9 3.5 0.00 0.00 0.00 95 1006.7
20260506104904 75 164 1.7 3.5 0.00 0.00 0.00 95 1006.8
20260506104802 75 144 1.7 3.5 0.00 0.00 0.00 95 1006.7
20260506104702 75 134 1.7 3.5 0.00 0.00 0.00 95 1006.7
20260506104601 75 142 1.7 3.5 0.00 0.00 0.00 95 1006.7
20260506104504 75 142 1.7 3.5 0.00 0.00 0.00 95 1006.6
20260506104404 75 155 1.7 3.5 0.00 0.00 0.00 95 1006.7
20260506104302 75 137 1.7 4.3 0.00 0.00 0.00 95 1006.7
20260506104203 75 148 1.7 4.3 0.00 0.00 0.00 95 1006.7
20260506104102 75 151 1.7 4.3 0.00 0.00 0.00 94 1006.7
20260506104002 75 161 2.6 4.3 0.00 0.00 0.00 94 1006.7
20260506103900 75 154 1.7 4.3 0.00 0.00 0.00 94 1006.7
20260506103800 75 162 0.9 4.3 0.00 0.00 0.00 94 1006.7
20260506103657 75 138 1.7 4.3 0.00 0.00 0.00 94 1006.7
20260506103557 75 178 1.7 4.3 0.00 0.00 0.00 94 1006.7
20260506103454 75 159 1.7 4.3 0.00 0.00 0.00 94 1006.7
20260506103353 75 182 1.7 4.3 0.00 0.00 0.00 94 1006.7
20260506103251 75 130 0.9 4.3 0.00 0.00 0.00 94 1006.6
20260506103151 75 140 0.0 4.3 0.00 0.00 0.00 94 1006.7
20260506103049 75 199 0.9 4.3 0.00 0.00 0.00 94 1006.7
20260506102945 75 199 1.7 4.3 0.00 0.00 0.00 94 1006.7
20260506102845 75 202 1.7 4.3 0.00 0.00 0.00 94 1006.6
20260506102742 75 125 1.7 4.3 0.00 0.00 0.00 94 1006.7
20260506102641 75 186 1.7 4.3 0.00 0.00 0.00 94 1006.7
20260506102539 75 140 1.7 4.3 0.00 0.00 0.00 94 1006.6
20260506102439 75 155 1.7 4.3 0.00 0.00 0.00 94 1006.6
20260506102335 75 183 1.7 4.3 0.00 0.00 0.00 94 1006.6
20260506102235 75 144 1.7 4.3 0.00 0.00 0.00 94 1006.5
20260506102133 75 171 1.7 5.2 0.00 0.00 0.00 94 1006.6
20260506102034 75 189 1.7 5.2 0.00 0.00 0.00 94 1006.6
20260506101931 75 161 1.7 5.2 0.00 0.00 0.00 94 1006.6
20260506101831 75 173 1.7 5.2 0.00 0.00 0.00 94 1006.6
20260506101732 75 121 2.6 5.2 0.00 0.00 0.00 94 1006.7
20260506101632 75 79 1.7 5.2 0.00 0.00 0.00 94 1006.7
20260506101530 75 159 1.7 5.2 0.00 0.00 0.00 94 1006.7
20260506101432 75 134 2.6 5.2 0.00 0.00 0.00 94 1006.7
20260506101332 75 214 1.7 5.2 0.00 0.00 0.00 94 1006.6
20260506101232 75 148 2.6 5.2 0.00 0.00 0.00 94 1006.6
20260506101131 75 161 2.6 5.2 0.00 0.00 0.00 94 1006.7
20260506101032 75 176 1.7 5.2 0.00 0.00 0.00 94 1006.6
20260506100930 75 162 2.6 5.2 0.00 0.00 0.00 94 1006.7
20260506100831 75 207 2.6 5.2 0.00 0.00 0.00 94 1006.6
20260506100732 75 141 2.6 5.2 0.00 0.00 0.00 94 1006.7
20260506100632 75 171 2.6 5.2 0.00 0.00 0.00 94 1006.7
20260506100532 75 142 2.6 5.2 0.00 0.00 0.00 94 1006.7
20260506100432 75 183 3.5 5.2 0.00 0.00 0.00 94 1006.6
20260506100332 75 199 3.5 5.2 0.00 0.00 0.00 94 1006.6
20260506100231 75 157 2.6 5.2 0.00 0.00 0.00 94 1006.5
20260506100132 75 182 2.6 7.8 0.00 0.00 0.00 94 1006.5
20260506100032 75 137 2.6 8.7 0.00 0.00 0.00 94 1006.5
20260506095931 76 162 2.6 8.7 0.00 0.00 0.00 94 1006.6
20260506095830 75 138 2.6 8.7 0.00 0.00 0.00 94 1006.5
20260506095732 76 124 1.7 8.7 0.00 0.00 0.00 94 1006.5
20260506095633 76 175 1.7 8.7 0.00 0.00 0.00 94 1006.5
20260506095531 76 157 2.6 8.7 0.00 0.00 0.00 94 1006.4
20260506095431 76 197 1.7 8.7 0.00 0.00 0.00 94 1006.4
20260506095333 76 178 3.5 8.7 0.00 0.00 0.00 94 1006.4
20260506095232 76 130 3.5 8.7 0.00 0.00 0.00 94 1006.4
20260506095131 76 116 2.6 10.4 0.00 0.00 0.00 93 1006.3
20260506095032 76 171 2.6 10.4 0.00 0.00 0.00 94 1006.3
20260506094932 76 131 3.5 10.4 0.00 0.00 0.00 94 1006.3
20260506094832 76 127 4.3 10.4 0.00 0.00 0.00 94 1006.2
20260506094731 76 168 3.5 10.4 0.00 0.00 0.00 94 1006.2
20260506094632 76 190 3.5 10.4 0.00 0.00 0.00 94 1006.2
20260506094531 76 235 3.5 10.4 0.00 0.00 0.00 94 1006.2
20260506094432 76 212 3.5 10.4 0.00 0.00 0.00 94 1006.2
20260506094332 76 168 4.3 10.4 0.00 0.00 0.00 94 1006.2
20260506094232 76 165 4.3 10.4 0.00 0.00 0.00 94 1006.2
20260506094131 76 157 3.5 9.6 0.00 0.00 0.00 94 1006.2
20260506094032 76 159 3.5 9.6 0.00 0.00 0.00 93 1006.2
20260506093932 76 133 4.3 9.6 0.00 0.00 0.00 93 1006.2
20260506093831 76 127 4.3 9.6 0.00 0.00 0.00 93 1006.2
20260506093731 76 168 3.5 8.7 0.00 0.00 0.00 93 1006.2
20260506093631 76 157 2.6 8.7 0.00 0.00 0.00 93 1006.2
20260506093532 76 213 3.5 9.6 0.00 0.00 0.00 93 1006.3
20260506093430 76 131 3.5 10.4 0.00 0.00 0.00 93 1006.3
20260506093331 76 149 2.6 10.4 0.00 0.00 0.00 93 1006.3
20260506093231 76 152 3.5 10.4 0.00 0.00 0.00 93 1006.3
20260506093130 76 188 4.3 10.4 0.00 0.00 0.00 93 1006.3
20260506093030 76 109 4.3 10.4 0.00 0.00 0.00 93 1006.3
20260506092930 76 142 3.5 10.4 0.00 0.00 0.00 93 1006.3
20260506092832 76 190 3.5 11.3 0.00 0.00 0.00 93 1006.3
20260506092730 76 168 5.2 11.3 0.00 0.00 0.00 93 1006.3
20260506092630 76 147 5.2 11.3 0.00 0.00 0.00 93 1006.4
20260506092532 76 179 4.3 11.3 0.00 0.00 0.00 93 1006.4
20260506092431 76 214 3.5 11.3 0.00 0.00 0.00 93 1006.4
20260506092331 76 183 4.3 11.3 0.00 0.00 0.00 93 1006.3
20260506092232 76 106 4.3 11.3 0.00 0.00 0.00 93 1006.4
20260506092132 76 138 4.3 11.3 0.00 0.00 0.00 93 1006.3
20260506092029 76 192 5.2 11.3 0.00 0.00 0.00 93 1006.3
20260506091930 76 134 5.2 11.3 0.00 0.00 0.00 93 1006.3
20260506091831 76 152 4.3 9.6 0.00 0.00 0.00 93 1006.3
20260506091731 76 165 5.2 9.6 0.00 0.00 0.00 93 1006.3
20260506091632 76 155 4.3 9.6 0.00 0.00 0.00 93 1006.3
20260506091532 76 185 3.5 8.7 0.00 0.00 0.00 93 1006.4
20260506091431 76 199 3.5 8.7 0.00 0.00 0.00 93 1006.4
20260506091329 76 99 3.5 9.6 0.00 0.00 0.00 93 1006.5
20260506091229 76 209 4.3 10.4 0.00 0.00 0.00 92 1006.4
20260506091131 76 152 4.3 10.4 0.00 0.00 0.00 92 1006.5
20260506091029 76 92 2.6 10.4 0.00 0.00 0.00 92 1006.5
20260506090929 76 117 3.5 10.4 0.00 0.00 0.00 92 1006.4
20260506090829 76 151 3.5 10.4 0.00 0.00 0.00 92 1006.5
20260506090731 76 183 2.6 10.4 0.00 0.00 0.00 92 1006.5
20260506090629 76 175 2.6 10.4 0.00 0.00 0.00 92 1006.5
20260506090530 76 142 5.2 10.4 0.00 0.00 0.00 92 1006.5
20260506090430 76 175 7.0 10.4 0.00 0.00 0.00 92 1006.4
20260506090330 76 178 5.2 10.4 0.00 0.00 0.00 92 1006.4
20260506090230 76 164 4.3 10.4 0.00 0.00 0.00 92 1006.4
20260506090130 76 186 3.5 10.4 0.00 0.00 0.00 92 1006.4
20260506090031 76 162 3.5 10.4 0.00 0.00 0.00 92 1006.4
20260506085931 76 113 4.3 10.4 0.00 0.00 0.00 92 1006.4
20260506085829 76 189 4.3 10.4 0.00 0.00 0.00 92 1006.4
20260506085731 76 192 4.3 10.4 0.00 0.00 0.00 92 1006.4
20260506085629 76 231 4.3 10.4 0.00 0.00 0.00 92 1006.5
20260506085531 76 121 6.1 10.4 0.00 0.00 0.00 92 1006.5
20260506085431 76 145 6.1 10.4 0.00 0.00 0.00 92 1006.5
20260506085329 76 195 4.3 10.4 0.00 0.00 0.00 92 1006.5
20260506085229 76 172 4.3 10.4 0.00 0.00 0.00 92 1006.5
20260506085130 76 159 4.3 10.4 0.00 0.00 0.00 92 1006.5
20260506085030 76 166 4.3 10.4 0.00 0.00 0.00 92 1006.5
20260506084930 76 142 3.5 10.4 0.00 0.00 0.00 92 1006.5
20260506084829 76 190 3.5 10.4 0.00 0.00 0.00 92 1006.6
20260506084731 76 140 5.2 10.4 0.00 0.00 0.00 92 1006.5
20260506084630 76 221 4.3 10.4 0.00 0.00 0.00 92 1006.6
20260506084530 76 159 3.5 10.4 0.00 0.00 0.00 92 1006.6
20260506084430 76 93 4.3 11.3 0.00 0.00 0.00 92 1006.6
20260506084331 77 166 5.2 11.3 0.00 0.00 0.00 92 1006.6
20260506084230 77 195 4.3 11.3 0.00 0.00 0.00 92 1006.6
20260506084129 77 111 4.3 11.3 0.00 0.00 0.00 92 1006.7
20260506084030 77 186 5.2 11.3 0.00 0.00 0.00 92 1006.7
20260506083929 77 118 5.2 11.3 0.00 0.00 0.00 92 1006.7
20260506083828 77 180 5.2 11.3 0.00 0.00 0.00 92 1006.8
20260506083728 77 193 5.2 11.3 0.00 0.00 0.00 92 1006.7
20260506083631 77 195 5.2 11.3 0.00 0.00 0.00 92 1006.7
20260506083528 77 210 5.2 11.3 0.00 0.00 0.00 92 1006.7
20260506083429 77 125 4.3 10.4 0.00 0.00 0.00 91 1006.7
20260506083330 77 110 4.3 10.4 0.00 0.00 0.00 91 1006.7
20260506083229 77 158 4.3 13.9 0.00 0.00 0.00 91 1006.7
20260506083129 77 158 3.5 13.9 0.00 0.00 0.00 91 1006.7
20260506083030 77 162 4.3 13.9 0.00 0.00 0.00 91 1006.7
20260506082930 77 159 5.2 13.9 0.00 0.00 0.00 91 1006.7
20260506082832 77 148 4.3 13.9 0.00 0.00 0.00 91 1006.7
20260506082729 77 192 3.5 13.9 0.00 0.00 0.00 91 1006.7
20260506082628 77 182 4.3 13.9 0.00 0.00 0.00 91 1006.7
20260506082529 77 240 6.1 13.9 0.00 0.00 0.00 91 1006.7
20260506082429 77 141 7.0 13.9 0.00 0.00 0.00 91 1006.7
20260506082329 77 161 5.2 13.9 0.00 0.00 0.00 91 1006.7
20260506082230 77 171 3.5 10.4 0.00 0.00 0.00 91 1006.7
20260506082129 77 180 2.6 10.4 0.00 0.00 0.00 91 1006.7
20260506082029 77 106 3.5 10.4 0.00 0.00 0.00 91 1006.7
20260506081929 77 182 5.2 10.4 0.00 0.00 0.00 91 1006.7
20260506081829 77 193 4.3 10.4 0.00 0.00 0.00 91 1006.8
20260506081729 77 200 3.5 9.6 0.00 0.00 0.00 91 1006.7
20260506081629 77 288 3.5 10.4 0.00 0.00 0.00 91 1006.7
20260506081530 77 179 3.5 10.4 0.00 0.00 0.00 91 1006.8
20260506081428 77 116 3.5 10.4 0.00 0.00 0.00 91 1006.8
20260506081329 77 204 1.7 10.4 0.00 0.00 0.00 91 1006.8
20260506081231 77 199 2.6 10.4 0.00 0.00 0.00 91 1006.8
20260506081128 77 180 3.5 10.4 0.00 0.00 0.00 91 1006.8
20260506081028 77 140 4.3 10.4 0.00 0.00 0.00 91 1006.9
20260506080928 77 204 5.2 10.4 0.00 0.00 0.00 91 1006.9
20260506080829 77 197 5.2 10.4 0.00 0.00 0.00 91 1006.8
20260506080729 77 226 4.3 10.4 0.00 0.00 0.00 91 1006.9
20260506080629 77 92 4.3 9.6 0.00 0.00 0.00 91 1006.9
20260506080530 77 193 6.1 9.6 0.00 0.00 0.00 91 1006.9
20260506080430 77 234 5.2 9.6 0.00 0.00 0.00 91 1006.9
20260506080320 77 165 5.2 9.6 0.00 0.00 0.00 91 1006.9
20260506080220 77 235 5.2 9.6 0.00 0.00 0.00 91 1006.9
20260506080119 77 188 3.5 9.6 0.00 0.00 0.00 91 1006.9
20260506073503 77 158 3.5 8.7 0.00 0.00 0.00 91 1007.1
20260506073404 77 171 2.6 8.7 0.00 0.00 0.00 91 1007.1
20260506073302 77 111 3.5 8.7 0.00 0.00 0.00 91 1007.1
20260506073202 77 130 4.3 8.7 0.00 0.00 0.00 91 1007.1
20260506073101 77 220 3.5 8.7 0.00 0.00 0.00 91 1007.1
20260506073004 77 130 4.3 8.7 0.00 0.00 0.00 91 1007.1
20260506072903 77 161 4.3 8.7 0.00 0.00 0.00 91 1007.2
20260506072802 77 157 3.5 8.7 0.00 0.00 0.00 91 1007.2
20260506072703 77 206 5.2 9.6 0.00 0.00 0.00 91 1007.1
20260506072603 77 185 4.3 10.4 0.00 0.00 0.00 91 1007.3
20260506072503 77 204 3.5 10.4 0.00 0.00 0.00 91 1007.2
20260506072404 77 162 2.6 10.4 0.00 0.00 0.00 91 1007.2
20260506072305 77 114 3.5 10.4 0.00 0.00 0.00 91 1007.1
20260506072203 77 131 3.5 10.4 0.00 0.00 0.00 91 1007.2
20260506072102 77 190 3.5 10.4 0.00 0.00 0.00 91 1007.2
20260506071958 77 140 3.5 10.4 0.00 0.00 0.00 91 1007.2
20260506071859 77 175 4.3 10.4 0.00 0.00 0.00 91 1007.2
20260506071756 77 135 5.2 10.4 0.00 0.00 0.00 91 1007.3
20260506071654 77 149 4.3 10.4 0.00 0.00 0.00 91 1007.3
20260506071553 77 203 4.3 10.4 0.00 0.00 0.00 91 1007.3
20260506071453 77 168 4.3 10.4 0.00 0.00 0.00 91 1007.3
20260506071350 77 164 4.3 8.7 0.00 0.00 0.00 91 1007.3
20260506071249 77 134 4.3 8.7 0.00 0.00 0.00 91 1007.3
20260506071147 77 188 3.5 8.7 0.00 0.00 0.00 91 1007.3
20260506071047 77 134 3.5 12.2 0.00 0.00 0.00 91 1007.4
20260506070946 77 123 3.5 12.2 0.00 0.00 0.00 91 1007.3
20260506070842 77 137 3.5 12.2 0.00 0.00 0.00 91 1007.3
20260506070741 77 204 3.5 12.2 0.00 0.00 0.00 91 1007.4
20260506070640 77 171 5.2 12.2 0.00 0.00 0.00 91 1007.4
20260506070537 77 141 4.3 12.2 0.00 0.00 0.00 91 1007.4
20260506070437 77 142 3.5 12.2 0.00 0.00 0.00 91 1007.4
20260506070335 77 137 3.5 13.0 0.00 0.00 0.00 91 1007.4
20260506070233 77 165 5.2 13.0 0.00 0.00 0.00 91 1007.5
20260506070134 77 142 5.2 13.0 0.00 0.00 0.00 91 1007.4
20260506062427 77 209 5.2 10.4 0.00 0.00 0.00 91 1007.6
20260506062326 77 171 5.2 10.4 0.00 0.00 0.00 91 1007.5
20260506062227 77 171 2.6 7.8 0.00 0.00 0.00 91 1007.6
20260506062127 77 213 3.5 9.6 0.00 0.00 0.00 91 1007.6
20260506062026 77 169 4.3 9.6 0.00 0.00 0.00 91 1007.5
20260506061928 77 227 4.3 9.6 0.00 0.00 0.00 91 1007.6
20260506061827 77 116 3.5 9.6 0.00 0.00 0.00 92 1007.6
20260506061726 77 117 1.7 9.6 0.00 0.00 0.00 92 1007.7
20260506061626 77 113 0.9 9.6 0.00 0.00 0.00 92 1007.7
20260506061526 77 161 2.6 9.6 0.00 0.00 0.00 92 1007.7
20260506061427 77 127 3.5 9.6 0.00 0.00 0.00 92 1007.7
20260506061326 77 190 4.3 9.6 0.00 0.00 0.00 92 1007.7
20260506061226 77 157 4.3 9.6 0.00 0.00 0.00 92 1007.7
20260506061126 77 193 3.5 6.1 0.00 0.00 0.00 92 1007.7
20260506061027 77 186 2.6 6.1 0.00 0.00 0.00 92 1007.7
20260506060926 77 148 2.6 6.1 0.00 0.00 0.00 92 1007.7
20260506060825 77 141 3.5 6.1 0.00 0.00 0.00 92 1007.7
20260506060726 77 141 2.6 6.1 0.00 0.00 0.00 92 1007.7
20260506060625 77 118 1.7 7.8 0.00 0.00 0.00 92 1007.7
20260506060525 77 128 2.6 7.8 0.00 0.00 0.00 92 1007.7
20260506060426 77 142 2.6 7.8 0.00 0.00 0.00 92 1007.7
20260506060325 77 110 2.6 7.8 0.00 0.00 0.00 92 1007.6
20260506060226 77 114 2.6 7.8 0.00 0.00 0.00 92 1007.7
20260506060125 77 103 1.7 7.8 0.00 0.00 0.00 92 1007.6
20260506051403 77 0 2.6 6.1 0.00 0.00 0.00 92 1007.6
20260506051303 77 71 2.6 6.1 0.00 0.00 0.00 92 1007.7
20260506051202 77 55 3.5 6.1 0.00 0.00 0.00 92 1007.6
20260506051102 77 62 2.6 6.1 0.00 0.00 0.00 92 1007.5
20260506051003 77 56 1.7 6.1 0.00 0.00 0.00 92 1007.5
20260506050902 77 58 3.5 6.1 0.00 0.00 0.00 92 1007.4
20260506050803 77 42 4.3 6.1 0.00 0.00 0.00 92 1007.4
20260506050703 77 63 3.5 7.8 0.00 0.00 0.00 92 1007.4
20260506050602 77 65 3.5 7.8 0.00 0.00 0.00 92 1007.4
20260506050503 77 0 3.5 7.8 0.00 0.00 0.00 92 1007.4
20260506050404 77 56 1.7 7.8 0.00 0.00 0.00 92 1007.5
20260506050302 77 35 2.6 7.8 0.00 0.00 0.00 92 1007.4
20260506050202 77 0 3.5 7.8 0.00 0.00 0.00 92 1007.5
20260506050103 77 52 3.5 7.8 0.00 0.00 0.00 92 1007.4
20260506045103 77 0 4.3 10.4 0.00 0.00 0.00 92 1007.6
20260506045003 77 37 3.5 10.4 0.00 0.00 0.00 92 1007.7
20260506044902 77 0 3.5 10.4 0.00 0.00 0.00 92 1007.6
20260506044801 77 55 3.5 10.4 0.00 0.00 0.00 92 1007.7
20260506044701 77 34 4.3 10.4 0.00 0.00 0.00 92 1007.7
20260506044603 77 0 4.3 10.4 0.00 0.00 0.00 92 1007.6
20260506044504 77 0 4.3 8.7 0.00 0.00 0.00 92 1007.6
20260506044402 77 56 5.2 8.7 0.00 0.00 0.00 92 1007.6
20260506044302 77 0 5.2 8.7 0.00 0.00 0.00 92 1007.7
20260506044202 77 59 3.5 8.7 0.00 0.00 0.00 92 1007.7
20260506044101 77 59 1.7 8.7 0.00 0.00 0.00 92 1007.7
20260506044002 77 49 3.5 8.7 0.00 0.00 0.00 91 1007.7
20260506043904 77 52 3.5 8.7 0.00 0.00 0.00 91 1007.7
20260506043802 77 51 4.3 8.7 0.00 0.00 0.00 91 1007.7
20260506043702 77 49 3.5 7.8 0.00 0.00 0.00 91 1007.7
20260506043603 77 42 2.6 7.8 0.00 0.00 0.00 91 1007.7
20260506043503 77 0 1.7 7.8 0.00 0.00 0.00 91 1007.7
20260506043402 77 179 3.5 7.8 0.00 0.00 0.00 91 1007.7
20260506043303 77 147 3.5 7.8 0.00 0.00 0.00 91 1007.7
20260506043202 77 107 1.7 8.7 0.00 0.00 0.00 91 1007.7
20260506043103 77 172 0.9 8.7 0.00 0.00 0.00 91 1007.6
20260506043002 77 152 1.7 8.7 0.00 0.00 0.00 91 1007.6
20260506042903 77 173 3.5 8.7 0.00 0.00 0.00 91 1007.6
20260506042802 77 173 3.5 8.7 0.00 0.00 0.00 91 1007.6
20260506042702 77 111 3.5 8.7 0.00 0.00 0.00 91 1007.6
20260506042603 77 142 4.3 8.7 0.00 0.00 0.00 91 1007.5
20260506042502 77 183 4.3 10.4 0.00 0.00 0.00 91 1007.5
20260506042403 77 179 4.3 10.4 0.00 0.00 0.00 91 1007.5
20260506042305 77 148 3.5 10.4 0.00 0.00 0.00 91 1007.5
20260506042203 77 158 2.6 10.4 0.00 0.00 0.00 91 1007.5
20260506042102 77 214 2.6 10.4 0.00 0.00 0.00 91 1007.5
20260506042004 77 196 3.5 10.4 0.00 0.00 0.00 90 1007.5
20260506041902 77 157 3.5 10.4 0.00 0.00 0.00 90 1007.5
20260506041803 77 185 3.5 10.4 0.00 0.00 0.00 90 1007.4
20260506041702 77 148 5.2 10.4 0.00 0.00 0.00 90 1007.5
20260506041603 77 173 5.2 10.4 0.00 0.00 0.00 90 1007.5
20260506041504 77 161 3.5 12.2 0.00 0.00 0.00 90 1007.4
20260506041403 77 209 4.3 12.2 0.00 0.00 0.00 90 1007.5
20260506041303 77 158 4.3 12.2 0.00 0.00 0.00 90 1007.5
20260506041202 77 190 5.2 12.2 0.00 0.00 0.00 90 1007.4
20260506041102 77 145 4.3 12.2 0.00 0.00 0.00 90 1007.4
20260506041003 78 171 4.3 12.2 0.00 0.00 0.00 90 1007.4
20260506040903 78 176 6.1 12.2 0.00 0.00 0.00 89 1007.4
20260506040803 78 152 6.1 13.0 0.00 0.00 0.00 89 1007.4
20260506040703 78 171 7.0 13.0 0.00 0.00 0.00 89 1007.4
20260506040603 78 144 6.1 13.0 0.00 0.00 0.00 89 1007.4
20260506040503 78 183 5.2 13.0 0.00 0.00 0.00 89 1007.4
20260506040402 78 127 4.3 13.0 0.00 0.00 0.00 89 1007.4
20260506040303 78 140 5.2 13.0 0.00 0.00 0.00 89 1007.4
20260506040204 78 213 5.2 13.0 0.00 0.00 0.00 89 1007.4
20260506040002 78 189 7.0 13.0 0.00 0.00 0.00 89 1007.4
20260506035904 78 135 7.0 13.0 0.00 0.00 0.00 89 1007.4
20260506035803 78 152 6.1 12.2 0.00 0.00 0.00 89 1007.4
20260506035701 78 178 5.2 12.2 0.00 0.00 0.00 89 1007.3
20260506035602 78 147 7.0 12.2 0.00 0.00 0.00 89 1007.4
20260506035504 78 149 6.1 12.2 0.00 0.00 0.00 89 1007.4
20260506035402 78 154 5.2 12.2 0.00 0.00 0.00 89 1007.4
20260506035305 78 155 5.2 10.4 0.00 0.00 0.00 89 1007.4
20260506035203 78 152 4.3 10.4 0.00 0.00 0.00 89 1007.5
20260506035103 78 147 5.2 10.4 0.00 0.00 0.00 89 1007.5
20260506035002 78 120 5.2 10.4 0.00 0.00 0.00 89 1007.4
20260506034903 78 185 4.3 10.4 0.00 0.00 0.00 89 1007.5
20260506034804 78 94 4.3 11.3 0.00 0.00 0.00 89 1007.4
20260506034702 78 127 3.5 11.3 0.00 0.00 0.00 89 1007.4
20260506034602 78 199 2.6 11.3 0.00 0.00 0.00 89 1007.4
20260506034503 78 137 3.5 11.3 0.00 0.00 0.00 89 1007.4
20260506034402 78 128 2.6 11.3 0.00 0.00 0.00 88 1007.3
20260506034302 78 54 3.5 11.3 0.00 0.00 0.00 88 1007.3
20260506034204 78 171 5.2 11.3 0.00 0.00 0.00 88 1007.4
20260506034102 78 155 6.1 11.3 0.00 0.00 0.00 88 1007.3
20260506034002 78 157 7.0 11.3 0.00 0.00 0.00 88 1007.3
20260506033902 78 137 4.3 11.3 0.00 0.00 0.00 88 1007.3
20260506033803 78 120 4.3 11.3 0.00 0.00 0.00 88 1007.3
20260506033702 78 65 4.3 11.3 0.00 0.00 0.00 88 1007.3
20260506033603 78 152 3.5 11.3 0.00 0.00 0.00 88 1007.2
20260506033503 78 151 5.2 11.3 0.00 0.00 0.00 88 1007.3
20260506033402 78 178 7.0 13.0 0.00 0.00 0.00 88 1007.2
20260506033301 78 121 6.1 13.0 0.00 0.00 0.00 88 1007.2
20260506033201 78 137 5.2 13.0 0.00 0.00 0.00 88 1007.2
20260506033103 78 183 6.1 13.0 0.00 0.00 0.00 88 1007.2
20260506033002 78 147 5.2 13.0 0.00 0.00 0.00 88 1007.1
20260506032859 78 186 4.3 13.0 0.00 0.00 0.00 88 1007.1
20260506032758 78 89 5.2 13.0 0.00 0.00 0.00 88 1007.1
20260506032656 78 155 5.2 13.0 0.00 0.00 0.00 88 1007.1
20260506032555 78 176 5.2 13.0 0.00 0.00 0.00 88 1007.0
20260506032453 78 168 5.2 13.0 0.00 0.00 0.00 88 1007.0
20260506032353 78 120 3.5 12.2 0.00 0.00 0.00 88 1007.0
20260506032250 78 124 3.5 12.2 0.00 0.00 0.00 88 1007.0
20260506032148 78 213 3.5 12.2 0.00 0.00 0.00 88 1007.0
20260506032047 78 120 4.3 12.2 0.00 0.00 0.00 88 1007.0
20260506031946 78 169 5.2 12.2 0.00 0.00 0.00 88 1007.0
20260506031845 78 83 5.2 12.2 0.00 0.00 0.00 88 1006.9
20260506031743 78 195 4.3 12.2 0.00 0.00 0.00 88 1006.9
20260506031642 78 243 5.2 10.4 0.00 0.00 0.00 88 1007.0
20260506031538 78 173 5.2 10.4 0.00 0.00 0.00 87 1006.9
20260506031438 78 178 5.2 14.8 0.00 0.00 0.00 87 1006.9
20260506031337 78 148 4.3 14.8 0.00 0.00 0.00 87 1006.9
20260506031236 78 172 5.2 14.8 0.00 0.00 0.00 87 1006.9
20260506031130 78 172 6.1 14.8 0.00 0.00 0.00 87 1006.8
20260506031032 78 189 5.2 14.8 0.00 0.00 0.00 87 1006.8
20260506030931 78 149 4.3 14.8 0.00 0.00 0.00 87 1006.9
20260506030832 78 148 4.3 14.8 0.00 0.00 0.00 87 1006.9
20260506030730 78 141 4.3 14.8 0.00 0.00 0.00 87 1006.9
20260506030631 78 142 5.2 14.8 0.00 0.00 0.00 87 1007.0
20260506030530 78 189 5.2 14.8 0.00 0.00 0.00 87 1007.0
20260506030429 78 149 5.2 13.9 0.00 0.00 0.00 87 1007.0
20260506030327 78 192 6.1 13.9 0.00 0.00 0.00 87 1007.0
20260506030226 78 172 5.2 13.9 0.00 0.00 0.00 87 1006.9
20260506030124 78 202 7.0 13.9 0.00 0.00 0.00 87 1006.9
20260506030023 78 197 7.0 13.9 0.00 0.00 0.00 87 1006.9
20260506025922 78 203 6.1 13.9 0.00 0.00 0.00 87 1006.9
20260506025821 78 152 7.0 13.9 0.00 0.00 0.00 87 1006.9
20260506025721 78 155 7.8 13.9 0.00 0.00 0.00 87 1006.9
20260506025623 78 189 6.1 13.0 0.00 0.00 0.00 87 1006.8
20260506025521 78 140 4.3 13.0 0.00 0.00 0.00 87 1006.9
20260506025421 78 154 4.3 13.0 0.00 0.00 0.00 87 1006.8
20260506025322 78 220 4.3 13.0 0.00 0.00 0.00 87 1006.9
20260506025222 78 182 2.6 13.0 0.00 0.00 0.00 87 1006.8
20260506025121 78 159 5.2 13.9 0.00 0.00 0.00 87 1006.9
20260506025021 78 123 6.1 13.9 0.00 0.00 0.00 87 1006.8
20260506024923 78 75 5.2 13.9 0.00 0.00 0.00 87 1006.7
20260506024822 78 195 5.2 13.9 0.00 0.00 0.00 87 1006.7
20260506024721 78 209 5.2 13.9 0.00 0.00 0.00 87 1006.6
20260506024622 78 195 5.2 13.9 0.00 0.00 0.00 87 1006.6
20260506024521 78 114 6.1 13.9 0.00 0.00 0.00 87 1006.6
20260506024423 78 166 5.2 13.9 0.00 0.00 0.00 87 1006.6
20260506024321 78 164 6.1 13.9 0.00 0.00 0.00 87 1006.5
20260506024222 78 154 6.1 13.9 0.00 0.00 0.00 87 1006.5
20260506024120 79 180 5.2 10.4 0.00 0.00 0.00 87 1006.5
20260506024021 79 89 4.3 10.4 0.00 0.00 0.00 87 1006.5
20260506023923 79 161 5.2 10.4 0.00 0.00 0.00 87 1006.5
20260506023821 79 196 5.2 10.4 0.00 0.00 0.00 87 1006.4
20260506023722 79 144 5.2 10.4 0.00 0.00 0.00 87 1006.4
20260506023622 79 154 5.2 11.3 0.00 0.00 0.00 87 1006.4
20260506023522 79 135 5.2 11.3 0.00 0.00 0.00 87 1006.5
20260506023421 79 197 5.2 11.3 0.00 0.00 0.00 86 1006.4
20260506023321 79 173 5.2 11.3 0.00 0.00 0.00 86 1006.4
20260506023220 79 193 5.2 11.3 0.00 0.00 0.00 86 1006.4
20260506023120 79 166 3.5 11.3 0.00 0.00 0.00 86 1006.4
20260506023021 79 221 3.5 11.3 0.00 0.00 0.00 86 1006.5
20260506022920 79 147 4.3 11.3 0.00 0.00 0.00 86 1006.4
20260506022820 79 147 6.1 11.3 0.00 0.00 0.00 86 1006.4
20260506022721 79 121 5.2 12.2 0.00 0.00 0.00 86 1006.4
20260506022621 79 123 3.5 12.2 0.00 0.00 0.00 86 1006.4
20260506022522 79 103 5.2 12.2 0.00 0.00 0.00 86 1006.4
20260506022421 79 202 5.2 12.2 0.00 0.00 0.00 86 1006.3
20260506022321 79 151 3.5 12.2 0.00 0.00 0.00 86 1006.3
20260506022220 79 166 3.5 13.0 0.00 0.00 0.00 86 1006.3
20260506022121 79 154 4.3 13.0 0.00 0.00 0.00 86 1006.3
20260506022021 79 109 5.2 13.0 0.00 0.00 0.00 86 1006.3
20260506021921 79 89 4.3 13.0 0.00 0.00 0.00 86 1006.3
20260506021822 79 199 2.6 13.0 0.00 0.00 0.00 86 1006.2
20260506021721 79 120 2.6 13.0 0.00 0.00 0.00 86 1006.2
20260506021620 79 120 3.5 13.0 0.00 0.00 0.00 86 1006.3
20260506021523 79 199 6.1 13.0 0.00 0.00 0.00 86 1006.2
20260506021420 79 190 7.0 13.0 0.00 0.00 0.00 86 1006.2
20260506021321 79 162 5.2 13.0 0.00 0.00 0.00 86 1006.2
20260506021221 79 272 3.5 12.2 0.00 0.00 0.00 86 1006.1
20260506021122 79 157 3.5 12.2 0.00 0.00 0.00 86 1006.2
20260506021020 79 118 3.5 12.2 0.00 0.00 0.00 86 1006.1
20260506020920 79 226 4.3 12.2 0.00 0.00 0.00 86 1006.2
20260506020821 79 182 5.2 12.2 0.00 0.00 0.00 86 1006.0
20260506020721 79 135 5.2 12.2 0.00 0.00 0.00 86 1006.0
20260506020620 79 158 7.0 12.2 0.00 0.00 0.00 86 1006.0
20260506020520 79 158 7.0 13.0 0.00 0.00 0.00 86 1006.0
20260506020421 79 195 5.2 13.0 0.00 0.00 0.00 86 1006.1
20260506020321 79 161 4.3 13.0 0.00 0.00 0.00 86 1006.0
20260506020220 79 131 3.5 13.0 0.00 0.00 0.00 86 1006.1
20260506020121 79 261 3.5 13.0 0.00 0.00 0.00 86 1006.1
20260506020020 79 235 4.3 13.0 0.00 0.00 0.00 86 1006.1
20260506015920 79 168 5.2 13.0 0.00 0.00 0.00 86 1006.0
20260506015821 79 200 7.0 13.0 0.00 0.00 0.00 86 1006.0
20260506015722 79 186 7.0 13.0 0.00 0.00 0.00 86 1006.1
20260506015620 79 164 6.1 13.0 0.00 0.00 0.00 85 1006.0
20260506015519 79 226 5.2 13.0 0.00 0.00 0.00 86 1006.0